Observation data for Crowell on 09/12/2017      Previous  Date  Next       Current Mesonet Observations  Soil Data  Daily Summary Page  Observations in Plain Language
KCR1 120500Z 12002KT 20/11 A3005 RMK A01 T02030111  RH  055%=      5-min Rain = 0
KCR1 120501Z 12001KT 20/11 A3005 RMK A01 T02030111  RH  056%=      5-min Rain = 0
KCR1 120502Z 13001KT 20/11 A3005 RMK A01 T02020112  RH  056%=      5-min Rain = 0
KCR1 120503Z 13001KT 20/11 A3005 RMK A01 T02010112  RH  057%=      5-min Rain = 0
KCR1 120504Z 13001KT 20/11 A3005 RMK A01 T02000112  RH  057%=      5-min Rain = 0
KCR1 120505Z 14001KT 20/11 A3005 RMK A01 T01990111  RH  057%=      5-min Rain = 0
KCR1 120506Z 14001KT 20/11 A3005 RMK A01 T02000112  RH  057%=      5-min Rain = 0
KCR1 120507Z 15001KT 20/11 A3005 RMK A01 T01990112  RH  057%=      5-min Rain = 0
KCR1 120508Z 15001KT 20/11 A3005 RMK A01 T01990112  RH  057%=      5-min Rain = 0
KCR1 120509Z 15001KT 20/11 A3005 RMK A01 T01990112  RH  057%=      5-min Rain = 0
KCR1 120510Z 15001KT 20/11 A3005 RMK A01 T01990111  RH  057%=      5-min Rain = 0
KCR1 120511Z 15001KT 20/11 A3005 RMK A01 T02000111  RH  057%=      5-min Rain = 0
KCR1 120512Z 15000KT 20/11 A3005 RMK A01 T02000111  RH  056%=      5-min Rain = 0
KCR1 120513Z 15000KT 20/11 A3005 RMK A01 T02000111  RH  056%=      5-min Rain = 0
KCR1 120514Z 17001KT 20/11 A3005 RMK A01 T02010111  RH  056%=      5-min Rain = 0
KCR1 120515Z 17001KT 20/11 A3005 RMK A01 T02000111  RH  056%=      5-min Rain = 0
KCR1 120516Z 18001KT 20/11 A3005 RMK A01 T02000111  RH  056%=      5-min Rain = 0
KCR1 120517Z 18001KT 20/11 A3005 RMK A01 T02000111  RH  056%=      5-min Rain = 0
KCR1 120518Z 18001KT 20/11 A3005 RMK A01 T02000111  RH  057%=      5-min Rain = 0
KCR1 120519Z 18001KT 20/11 A3005 RMK A01 T01990112  RH  057%=      5-min Rain = 0
KCR1 120520Z 17001KT 20/11 A3005 RMK A01 T01980112  RH  057%=      5-min Rain = 0
KCR1 120521Z 17001KT 20/11 A3005 RMK A01 T01980112  RH  057%=      5-min Rain = 0
KCR1 120522Z 17001KT 20/11 A3005 RMK A01 T01980112  RH  057%=      5-min Rain = 0
KCR1 120523Z 18002KT 20/11 A3005 RMK A01 T01980112  RH  057%=      5-min Rain = 0
KCR1 120524Z 18002KT 20/11 A3005 RMK A01 T01980112  RH  057%=      5-min Rain = 0
KCR1 120525Z 17002KT 20/11 A3005 RMK A01 T01990112  RH  057%=      5-min Rain = 0
KCR1 120526Z 18002KT 20/11 A3005 RMK A01 T01990112  RH  057%=      5-min Rain = 0
KCR1 120527Z 17002KT 20/11 A3005 RMK A01 T01990112  RH  057%=      5-min Rain = 0
KCR1 120528Z 17002KT 20/11 A3005 RMK A01 T02000112  RH  057%=      5-min Rain = 0
KCR1 120529Z 16002KT 20/11 A3005 RMK A01 T02000112  RH  057%=      5-min Rain = 0
KCR1 120530Z 16002KT 20/11 A3005 RMK A01 T02010113  RH  057%=      5-min Rain = 0
KCR1 120531Z 16002KT 20/11 A3005 RMK A01 T02010113  RH  057%=      5-min Rain = 0
KCR1 120532Z 16002KT 20/11 A3005 RMK A01 T02010113  RH  057%=      5-min Rain = 0
KCR1 120533Z 16002KT 20/11 A3005 RMK A01 T02010113  RH  057%=      5-min Rain = 0
KCR1 120534Z 16002KT 20/11 A3005 RMK A01 T02020113  RH  057%=      5-min Rain = 0
KCR1 120535Z 16003KT 20/11 A3005 RMK A01 T02030114  RH  057%=      5-min Rain = 0
KCR1 120536Z 16003KT 20/11 A3005 RMK A01 T02030114  RH  056%=      5-min Rain = 0
KCR1 120537Z 16003KT 20/11 A3005 RMK A01 T02040114  RH  056%=      5-min Rain = 0
KCR1 120538Z 16003KT 20/11 A3005 RMK A01 T02040114  RH  056%=      5-min Rain = 0
KCR1 120539Z 16003KT 20/11 A3005 RMK A01 T02040113  RH  056%=      5-min Rain = 0
KCR1 120540Z 16003KT 21/11 A3005 RMK A01 T02050113  RH  055%=      5-min Rain = 0
KCR1 120541Z 16003KT 21/11 A3005 RMK A01 T02060113  RH  055%=      5-min Rain = 0
KCR1 120542Z 16003KT 21/11 A3005 RMK A01 T02070113  RH  055%=      5-min Rain = 0
KCR1 120543Z 16003KT 21/11 A3005 RMK A01 T02070113  RH  055%=      5-min Rain = 0
KCR1 120544Z 15004KT 21/11 A3005 RMK A01 T02080113  RH  054%=      5-min Rain = 0
KCR1 120545Z 15004KT 21/11 A3005 RMK A01 T02080113  RH  054%=      5-min Rain = 0
KCR1 120546Z 15004KT 21/11 A3005 RMK A01 T02080113  RH  054%=      5-min Rain = 0
KCR1 120547Z 15004KT 21/11 A3005 RMK A01 T02080113  RH  055%=      5-min Rain = 0
KCR1 120548Z 15003KT 21/11 A3005 RMK A01 T02070113  RH  055%=      5-min Rain = 0
KCR1 120549Z 15003KT 21/11 A3005 RMK A01 T02070113  RH  055%=      5-min Rain = 0
KCR1 120550Z 15003KT 21/11 A3005 RMK A01 T02060113  RH  055%=      5-min Rain = 0
KCR1 120551Z 15003KT 21/11 A3004 RMK A01 T02060113  RH  055%=      5-min Rain = 0
KCR1 120552Z 15003KT 21/11 A3004 RMK A01 T02060113  RH  055%=      5-min Rain = 0
KCR1 120553Z 15003KT 21/11 A3004 RMK A01 T02050113  RH  055%=      5-min Rain = 0
KCR1 120554Z 15003KT 21/11 A3004 RMK A01 T02050113  RH  056%=      5-min Rain = 0
KCR1 120555Z 16003KT 20/11 A3004 RMK A01 T02040113  RH  056%=      5-min Rain = 0
KCR1 120556Z 17003KT 20/11 A3004 RMK A01 T02020112  RH  056%=      5-min Rain = 0
KCR1 120557Z 18003KT 20/11 A3004 RMK A01 T02020113  RH  056%=      5-min Rain = 0
KCR1 120558Z 18003KT 20/11 A3004 RMK A01 T02010114  RH  057%=      5-min Rain = 0
KCR1 120559Z 18003KT 20/12 A3004 RMK A01 T02000115  RH  058%=      5-min Rain = 0
KCR1 120600Z 19003KT 20/12 A3004 RMK A01 T01990115  RH  058%=      5-min Rain = 0
KCR1 120601Z 19003KT 20/11 A3004 RMK A01 T01980113  RH  058%=      5-min Rain = 0
KCR1 120602Z 20003KT 20/11 A3004 RMK A01 T01980113  RH  058%=      5-min Rain = 0
KCR1 120603Z 20003KT 20/11 A3004 RMK A01 T01980112  RH  058%=      5-min Rain = 0
KCR1 120604Z 19003KT 20/11 A3004 RMK A01 T01980112  RH  058%=      5-min Rain = 0
KCR1 120605Z 19003KT 20/11 A3004 RMK A01 T01990113  RH  058%=      5-min Rain = 0
KCR1 120606Z 19003KT 20/11 A3004 RMK A01 T01990113  RH  058%=      5-min Rain = 0
KCR1 120607Z 19003KT 20/11 A3004 RMK A01 T01990113  RH  058%=      5-min Rain = 0
KCR1 120608Z 19003KT 20/11 A3004 RMK A01 T01980113  RH  058%=      5-min Rain = 0
KCR1 120609Z 19003KT 20/11 A3004 RMK A01 T01970113  RH  058%=      5-min Rain = 0
KCR1 120610Z 19003KT 20/11 A3004 RMK A01 T01970114  RH  058%=      5-min Rain = 0
KCR1 120611Z 19003KT 20/11 A3004 RMK A01 T01970113  RH  059%=      5-min Rain = 0
KCR1 120612Z 19003KT 20/11 A3004 RMK A01 T01960113  RH  059%=      5-min Rain = 0
KCR1 120613Z 19003KT 20/11 A3004 RMK A01 T01960113  RH  059%=      5-min Rain = 0
KCR1 120614Z 19003KT 20/11 A3004 RMK A01 T01960113  RH  059%=      5-min Rain = 0
KCR1 120615Z 18003KT 20/11 A3004 RMK A01 T01960113  RH  059%=      5-min Rain = 0
KCR1 120616Z 18003KT 20/11 A3004 RMK A01 T01960114  RH  059%=      5-min Rain = 0
KCR1 120617Z 18003KT 20/11 A3004 RMK A01 T01960114  RH  059%=      5-min Rain = 0
KCR1 120618Z 18003KT 20/11 A3004 RMK A01 T01960114  RH  059%=      5-min Rain = 0
KCR1 120619Z 18003KT 20/11 A3004 RMK A01 T01960114  RH  059%=      5-min Rain = 0
KCR1 120620Z 18003KT 20/11 A3004 RMK A01 T01960113  RH  059%=      5-min Rain = 0
KCR1 120621Z 18003KT 20/11 A3004 RMK A01 T01950113  RH  059%=      5-min Rain = 0
KCR1 120622Z 18003KT 20/11 A3004 RMK A01 T01950112  RH  059%=      5-min Rain = 0
KCR1 120623Z 19003KT 20/11 A3004 RMK A01 T01950112  RH  059%=      5-min Rain = 0
KCR1 120624Z 19003KT 20/11 A3004 RMK A01 T01960112  RH  058%=      5-min Rain = 0
KCR1 120625Z 19003KT 20/11 A3004 RMK A01 T01950112  RH  058%=      5-min Rain = 0
KCR1 120626Z 19002KT 20/11 A3004 RMK A01 T01960112  RH  058%=      5-min Rain = 0
KCR1 120627Z 19002KT 20/11 A3004 RMK A01 T01960112  RH  058%=      5-min Rain = 0
KCR1 120628Z 20002KT 20/11 A3004 RMK A01 T01960112  RH  058%=      5-min Rain = 0
KCR1 120629Z 20002KT 20/11 A3004 RMK A01 T01960112  RH  058%=      5-min Rain = 0
KCR1 120630Z 20002KT 20/11 A3004 RMK A01 T01960112  RH  058%=      5-min Rain = 0
KCR1 120631Z 19002KT 20/11 A3004 RMK A01 T01960112  RH  058%=      5-min Rain = 0
KCR1 120632Z 19002KT 20/11 A3004 RMK A01 T01960112  RH  058%=      5-min Rain = 0
KCR1 120633Z 19002KT 20/11 A3004 RMK A01 T01960112  RH  058%=      5-min Rain = 0
KCR1 120634Z 19002KT 20/11 A3004 RMK A01 T01970112  RH  058%=      5-min Rain = 0
KCR1 120635Z 19002KT 20/11 A3004 RMK A01 T01960112  RH  058%=      5-min Rain = 0
KCR1 120636Z 19002KT 20/11 A3004 RMK A01 T01960112  RH  058%=      5-min Rain = 0
KCR1 120637Z 19002KT 20/11 A3004 RMK A01 T01960112  RH  058%=      5-min Rain = 0
KCR1 120638Z 20002KT 20/11 A3004 RMK A01 T01960112  RH  058%=      5-min Rain = 0
KCR1 120639Z 20002KT 20/11 A3004 RMK A01 T01960112  RH  058%=      5-min Rain = 0
KCR1 120640Z 20002KT 20/11 A3004 RMK A01 T01960112  RH  059%=      5-min Rain = 0
KCR1 120641Z 19002KT 20/11 A3004 RMK A01 T01960113  RH  059%=      5-min Rain = 0
KCR1 120642Z 19002KT 20/11 A3004 RMK A01 T01950112  RH  059%=      5-min Rain = 0
KCR1 120643Z 20002KT 20/11 A3004 RMK A01 T01950112  RH  059%=      5-min Rain = 0
KCR1 120644Z 20002KT 20/11 A3004 RMK A01 T01960112  RH  058%=      5-min Rain = 0
KCR1 120645Z 20002KT 20/11 A3004 RMK A01 T01970113  RH  058%=      5-min Rain = 0
KCR1 120646Z 21002KT 20/11 A3004 RMK A01 T01970112  RH  058%=      5-min Rain = 0
KCR1 120647Z 21002KT 20/11 A3004 RMK A01 T01970113  RH  058%=      5-min Rain = 0
KCR1 120648Z 22002KT 20/11 A3004 RMK A01 T01960113  RH  059%=      5-min Rain = 0
KCR1 120649Z 21002KT 20/11 A3004 RMK A01 T01950113  RH  059%=      5-min Rain = 0
KCR1 120650Z 21002KT 20/11 A3004 RMK A01 T01950113  RH  059%=      5-min Rain = 0
KCR1 120651Z 21002KT 20/11 A3004 RMK A01 T01950113  RH  059%=      5-min Rain = 0
KCR1 120652Z 21002KT 20/11 A3004 RMK A01 T01950113  RH  059%=      5-min Rain = 0
KCR1 120653Z 21002KT 20/11 A3004 RMK A01 T01950113  RH  059%=      5-min Rain = 0
KCR1 120654Z 20002KT 20/11 A3004 RMK A01 T01950113  RH  059%=      5-min Rain = 0
KCR1 120655Z 20002KT 20/11 A3004 RMK A01 T01950113  RH  059%=      5-min Rain = 0
KCR1 120656Z 20002KT 19/11 A3004 RMK A01 T01940113  RH  059%=      5-min Rain = 0
KCR1 120657Z 20002KT 19/11 A3004 RMK A01 T01940113  RH  060%=      5-min Rain = 0
KCR1 120658Z 20002KT 19/11 A3004 RMK A01 T01930113  RH  060%=      5-min Rain = 0
KCR1 120659Z 20002KT 19/11 A3004 RMK A01 T01920113  RH  060%=      5-min Rain = 0
KCR1 120700Z 20002KT 19/11 A3004 RMK A01 T01930114  RH  060%=      5-min Rain = 0
KCR1 120701Z 20002KT 19/11 A3004 RMK A01 T01920113  RH  060%=      5-min Rain = 0
KCR1 120702Z 19002KT 19/11 A3004 RMK A01 T01930113  RH  060%=      5-min Rain = 0
KCR1 120703Z 20002KT 19/11 A3004 RMK A01 T01930113  RH  060%=      5-min Rain = 0
KCR1 120704Z 20002KT 19/11 A3004 RMK A01 T01930113  RH  060%=      5-min Rain = 0
KCR1 120705Z 21002KT 19/11 A3004 RMK A01 T01940113  RH  060%=      5-min Rain = 0
KCR1 120706Z 22002KT 20/11 A3004 RMK A01 T01950114  RH  059%=      5-min Rain = 0
KCR1 120707Z 22002KT 20/11 A3004 RMK A01 T01960114  RH  059%=      5-min Rain = 0
KCR1 120708Z 22002KT 20/11 A3004 RMK A01 T01970114  RH  059%=      5-min Rain = 0
KCR1 120709Z 23002KT 20/11 A3004 RMK A01 T01960114  RH  059%=      5-min Rain = 0
KCR1 120710Z 23002KT 20/11 A3004 RMK A01 T01960114  RH  059%=      5-min Rain = 0
KCR1 120711Z 24002KT 20/12 A3004 RMK A01 T01970115  RH  059%=      5-min Rain = 0
KCR1 120712Z 25002KT 20/12 A3004 RMK A01 T01970115  RH  059%=      5-min Rain = 0
KCR1 120713Z 25002KT 20/11 A3004 RMK A01 T01960114  RH  059%=      5-min Rain = 0
KCR1 120714Z 25002KT 20/12 A3004 RMK A01 T01960115  RH  060%=      5-min Rain = 0
KCR1 120715Z 26002KT 19/12 A3004 RMK A01 T01940116  RH  060%=      5-min Rain = 0
KCR1 120716Z 26002KT 19/12 A3004 RMK A01 T01920116  RH  062%=      5-min Rain = 0
KCR1 120717Z 27002KT 19/12 A3004 RMK A01 T01900116  RH  062%=      5-min Rain = 0
KCR1 120718Z 28001KT 19/12 A3004 RMK A01 T01870117  RH  063%=      5-min Rain = 0
KCR1 120719Z 29001KT 19/12 A3004 RMK A01 T01850116  RH  064%=      5-min Rain = 0
KCR1 120720Z 30001KT 18/12 A3004 RMK A01 T01840117  RH  065%=      5-min Rain = 0
KCR1 120721Z 31001KT 18/12 A3004 RMK A01 T01830116  RH  065%=      5-min Rain = 0
KCR1 120722Z 32001KT 18/12 A3004 RMK A01 T01820116  RH  065%=      5-min Rain = 0
KCR1 120723Z 32001KT 18/12 A3004 RMK A01 T01820116  RH  065%=      5-min Rain = 0
KCR1 120724Z 32001KT 18/12 A3004 RMK A01 T01820115  RH  065%=      5-min Rain = 0
KCR1 120725Z 33002KT 18/12 A3004 RMK A01 T01810115  RH  065%=      5-min Rain = 0
KCR1 120726Z 34002KT 18/12 A3004 RMK A01 T01810115  RH  065%=      5-min Rain = 0
KCR1 120727Z 34002KT 18/11 A3004 RMK A01 T01800114  RH  065%=      5-min Rain = 0
KCR1 120728Z 34002KT 18/11 A3003 RMK A01 T01800113  RH  065%=      5-min Rain = 0
KCR1 120729Z 35002KT 18/11 A3003 RMK A01 T01800113  RH  065%=      5-min Rain = 0
KCR1 120730Z 35002KT 18/11 A3003 RMK A01 T01800112  RH  065%=      5-min Rain = 0
KCR1 120731Z 35002KT 18/11 A3003 RMK A01 T01790112  RH  065%=      5-min Rain = 0
KCR1 120732Z 33001KT 18/11 A3003 RMK A01 T01790112  RH  065%=      5-min Rain = 0
KCR1 120733Z 33001KT 18/11 A3003 RMK A01 T01790113  RH  065%=      5-min Rain = 0
KCR1 120734Z 34001KT 18/11 A3003 RMK A01 T01780113  RH  066%=      5-min Rain = 0
KCR1 120735Z 34002KT 18/11 A3003 RMK A01 T01780113  RH  066%=      5-min Rain = 0
KCR1 120736Z 34002KT 18/11 A3003 RMK A01 T01770113  RH  066%=      5-min Rain = 0
KCR1 120737Z 34002KT 18/11 A3003 RMK A01 T01770113  RH  066%=      5-min Rain = 0
KCR1 120738Z 34002KT 18/11 A3003 RMK A01 T01770113  RH  066%=      5-min Rain = 0
KCR1 120739Z 34003KT 18/11 A3003 RMK A01 T01760113  RH  066%=      5-min Rain = 0
KCR1 120740Z 35003KT 18/11 A3003 RMK A01 T01760113  RH  066%=      5-min Rain = 0
KCR1 120741Z 35003KT 18/11 A3003 RMK A01 T01760113  RH  066%=      5-min Rain = 0
KCR1 120742Z 35004KT 18/11 A3003 RMK A01 T01760112  RH  066%=      5-min Rain = 0
KCR1 120743Z 35004KT 18/11 A3004 RMK A01 T01760112  RH  066%=      5-min Rain = 0
KCR1 120744Z 35004KT 18/11 A3004 RMK A01 T01760112  RH  066%=      5-min Rain = 0
KCR1 120745Z 36004KT 18/11 A3004 RMK A01 T01760112  RH  066%=      5-min Rain = 0
KCR1 120746Z 36004KT 18/11 A3004 RMK A01 T01770111  RH  065%=      5-min Rain = 0
KCR1 120747Z 00004KT 18/11 A3004 RMK A01 T01770111  RH  065%=      5-min Rain = 0
KCR1 120748Z 00004KT 18/11 A3004 RMK A01 T01770111  RH  065%=      5-min Rain = 0
KCR1 120749Z 00004KT 18/11 A3003 RMK A01 T01770111  RH  065%=      5-min Rain = 0
KCR1 120750Z 00003KT 18/11 A3003 RMK A01 T01780111  RH  065%=      5-min Rain = 0
KCR1 120751Z 00003KT 18/11 A3003 RMK A01 T01780111  RH  065%=      5-min Rain = 0
KCR1 120752Z 00003KT 18/11 A3003 RMK A01 T01780111  RH  065%=      5-min Rain = 0
KCR1 120753Z 00003KT 18/11 A3003 RMK A01 T01780111  RH  065%=      5-min Rain = 0
KCR1 120754Z 00003KT 18/11 A3003 RMK A01 T01780111  RH  065%=      5-min Rain = 0
KCR1 120755Z 00003KT 18/11 A3003 RMK A01 T01780111  RH  065%=      5-min Rain = 0
KCR1 120756Z 00004KT 18/11 A3003 RMK A01 T01780111  RH  065%=      5-min Rain = 0
KCR1 120757Z 00003KT 18/11 A3003 RMK A01 T01780111  RH  065%=      5-min Rain = 0
KCR1 120758Z 00003KT 18/11 A3003 RMK A01 T01780110  RH  064%=      5-min Rain = 0
KCR1 120759Z 01003KT 18/11 A3003 RMK A01 T01780110  RH  065%=      5-min Rain = 0
KCR1 120800Z 01003KT 18/11 A3003 RMK A01 T01770110  RH  065%=      5-min Rain = 0
KCR1 120801Z 01003KT 18/11 A3003 RMK A01 T01770111  RH  065%=      5-min Rain = 0
KCR1 120802Z 01003KT 18/11 A3003 RMK A01 T01770111  RH  065%=      5-min Rain = 0
KCR1 120803Z 01004KT 18/11 A3003 RMK A01 T01760110  RH  065%=      5-min Rain = 0
KCR1 120804Z 01004KT 18/11 A3003 RMK A01 T01760110  RH  065%=      5-min Rain = 0
KCR1 120805Z 01003KT 18/11 A3003 RMK A01 T01760110  RH  066%=      5-min Rain = 0
KCR1 120806Z 01003KT 18/11 A3003 RMK A01 T01750110  RH  066%=      5-min Rain = 0
KCR1 120807Z 01003KT 18/11 A3003 RMK A01 T01750111  RH  066%=      5-min Rain = 0
KCR1 120808Z 00003KT 18/11 A3003 RMK A01 T01750110  RH  066%=      5-min Rain = 0
KCR1 120809Z 00003KT 18/11 A3003 RMK A01 T01750110  RH  066%=      5-min Rain = 0
KCR1 120810Z 01003KT 18/11 A3003 RMK A01 T01750111  RH  066%=      5-min Rain = 0
KCR1 120811Z 01003KT 18/11 A3003 RMK A01 T01750111  RH  066%=      5-min Rain = 0
KCR1 120812Z 01003KT 18/11 A3003 RMK A01 T01750111  RH  066%=      5-min Rain = 0
KCR1 120813Z 00003KT 18/11 A3003 RMK A01 T01750111  RH  066%=      5-min Rain = 0
KCR1 120814Z 00003KT 17/11 A3003 RMK A01 T01740111  RH  066%=      5-min Rain = 0
KCR1 120815Z 00003KT 18/11 A3003 RMK A01 T01750112  RH  066%=      5-min Rain = 0
KCR1 120816Z 00003KT 18/11 A3003 RMK A01 T01750112  RH  067%=      5-min Rain = 0
KCR1 120817Z 00003KT 18/11 A3003 RMK A01 T01750112  RH  067%=      5-min Rain = 0
KCR1 120818Z 00002KT 18/11 A3003 RMK A01 T01750112  RH  067%=      5-min Rain = 0
KCR1 120819Z 00002KT 18/11 A3003 RMK A01 T01750112  RH  067%=      5-min Rain = 0
KCR1 120820Z 00002KT 18/11 A3003 RMK A01 T01750112  RH  066%=      5-min Rain = 0
KCR1 120821Z 00002KT 18/11 A3003 RMK A01 T01750112  RH  066%=      5-min Rain = 0
KCR1 120822Z 00002KT 18/11 A3003 RMK A01 T01760112  RH  066%=      5-min Rain = 0
KCR1 120823Z 35002KT 18/11 A3003 RMK A01 T01760112  RH  066%=      5-min Rain = 0
KCR1 120824Z 35002KT 18/11 A3003 RMK A01 T01760112  RH  066%=      5-min Rain = 0
KCR1 120825Z 35002KT 18/11 A3003 RMK A01 T01760112  RH  066%=      5-min Rain = 0
KCR1 120826Z 35001KT 18/11 A3003 RMK A01 T01760112  RH  066%=      5-min Rain = 0
KCR1 120827Z 34001KT 18/11 A3003 RMK A01 T01770112  RH  065%=      5-min Rain = 0
KCR1 120828Z 34002KT 18/11 A3002 RMK A01 T01790112  RH  065%=      5-min Rain = 0
KCR1 120829Z 34002KT 18/11 A3002 RMK A01 T01790112  RH  065%=      5-min Rain = 0
KCR1 120830Z 34002KT 18/11 A3002 RMK A01 T01790112  RH  065%=      5-min Rain = 0
KCR1 120831Z 33002KT 18/11 A3002 RMK A01 T01790113  RH  065%=      5-min Rain = 0
KCR1 120832Z 33002KT 18/11 A3002 RMK A01 T01780112  RH  065%=      5-min Rain = 0
KCR1 120833Z 33002KT 18/11 A3002 RMK A01 T01780112  RH  066%=      5-min Rain = 0
KCR1 120834Z 32002KT 18/11 A3002 RMK A01 T01780113  RH  066%=      5-min Rain = 0
KCR1 120835Z 32002KT 18/11 A3002 RMK A01 T01780113  RH  066%=      5-min Rain = 0
KCR1 120836Z 32002KT 18/11 A3002 RMK A01 T01780113  RH  066%=      5-min Rain = 0
KCR1 120837Z 31002KT 18/11 A3002 RMK A01 T01780113  RH  066%=      5-min Rain = 0
KCR1 120838Z 31002KT 18/11 A3002 RMK A01 T01780112  RH  066%=      5-min Rain = 0
KCR1 120839Z 31002KT 18/11 A3002 RMK A01 T01780112  RH  065%=      5-min Rain = 0
KCR1 120840Z 30002KT 18/11 A3002 RMK A01 T01780112  RH  065%=      5-min Rain = 0
KCR1 120841Z 30002KT 18/11 A3002 RMK A01 T01780113  RH  066%=      5-min Rain = 0
KCR1 120842Z 30002KT 18/11 A3002 RMK A01 T01780113  RH  066%=      5-min Rain = 0
KCR1 120843Z 30002KT 18/11 A3002 RMK A01 T01780113  RH  066%=      5-min Rain = 0
KCR1 120844Z 30002KT 18/11 A3002 RMK A01 T01770113  RH  066%=      5-min Rain = 0
KCR1 120845Z 30002KT 18/11 A3002 RMK A01 T01770113  RH  066%=      5-min Rain = 0
KCR1 120846Z 30002KT 18/11 A3002 RMK A01 T01780113  RH  066%=      5-min Rain = 0
KCR1 120847Z 30002KT 18/11 A3002 RMK A01 T01780114  RH  066%=      5-min Rain = 0
KCR1 120848Z 30002KT 18/11 A3002 RMK A01 T01780113  RH  066%=      5-min Rain = 0
KCR1 120849Z 30002KT 18/11 A3002 RMK A01 T01780114  RH  066%=      5-min Rain = 0
KCR1 120850Z 30002KT 18/11 A3002 RMK A01 T01780113  RH  066%=      5-min Rain = 0
KCR1 120851Z 30002KT 18/11 A3002 RMK A01 T01780113  RH  066%=      5-min Rain = 0
KCR1 120852Z 31002KT 18/11 A3002 RMK A01 T01780113  RH  066%=      5-min Rain = 0
KCR1 120853Z 31002KT 18/11 A3002 RMK A01 T01780113  RH  066%=      5-min Rain = 0
KCR1 120854Z 31002KT 18/11 A3002 RMK A01 T01780113  RH  065%=      5-min Rain = 0
KCR1 120855Z 31002KT 18/11 A3002 RMK A01 T01790113  RH  065%=      5-min Rain = 0
KCR1 120856Z 31003KT 18/11 A3002 RMK A01 T01790113  RH  065%=      5-min Rain = 0
KCR1 120857Z 31003KT 18/11 A3002 RMK A01 T01790113  RH  065%=      5-min Rain = 0
KCR1 120858Z 31003KT 18/11 A3002 RMK A01 T01780114  RH  066%=      5-min Rain = 0
KCR1 120859Z 31003KT 18/11 A3002 RMK A01 T01770114  RH  067%=      5-min Rain = 0
KCR1 120900Z 31003KT 18/11 A3002 RMK A01 T01750114  RH  067%=      5-min Rain = 0
KCR1 120901Z 30003KT 17/11 A3002 RMK A01 T01740113  RH  068%=      5-min Rain = 0
KCR1 120902Z 30003KT 17/11 A3002 RMK A01 T01740114  RH  068%=      5-min Rain = 0
KCR1 120903Z 30004KT 17/11 A3002 RMK A01 T01740113  RH  068%=      5-min Rain = 0
KCR1 120904Z 30003KT 17/11 A3002 RMK A01 T01730113  RH  068%=      5-min Rain = 0
KCR1 120905Z 30003KT 17/11 A3002 RMK A01 T01730113  RH  068%=      5-min Rain = 0
KCR1 120906Z 30003KT 17/11 A3002 RMK A01 T01720113  RH  068%=      5-min Rain = 0
KCR1 120907Z 31003KT 17/11 A3002 RMK A01 T01710114  RH  069%=      5-min Rain = 0
KCR1 120908Z 31003KT 17/11 A3002 RMK A01 T01710114  RH  069%=      5-min Rain = 0
KCR1 120909Z 31003KT 17/11 A3002 RMK A01 T01710114  RH  069%=      5-min Rain = 0
KCR1 120910Z 31003KT 17/11 A3002 RMK A01 T01700114  RH  069%=      5-min Rain = 0
KCR1 120911Z 31003KT 17/11 A3002 RMK A01 T01700114  RH  069%=      5-min Rain = 0
KCR1 120912Z 31003KT 17/11 A3002 RMK A01 T01700114  RH  069%=      5-min Rain = 0
KCR1 120913Z 31003KT 17/11 A3002 RMK A01 T01700113  RH  069%=      5-min Rain = 0
KCR1 120914Z 31003KT 17/11 A3002 RMK A01 T01710113  RH  069%=      5-min Rain = 0
KCR1 120915Z 31003KT 17/11 A3002 RMK A01 T01720113  RH  068%=      5-min Rain = 0
KCR1 120916Z 32003KT 17/11 A3002 RMK A01 T01730113  RH  068%=      5-min Rain = 0
KCR1 120917Z 32003KT 17/11 A3002 RMK A01 T01730114  RH  068%=      5-min Rain = 0
KCR1 120918Z 32003KT 17/11 A3002 RMK A01 T01730114  RH  068%=      5-min Rain = 0
KCR1 120919Z 32003KT 17/11 A3002 RMK A01 T01720114  RH  068%=      5-min Rain = 0
KCR1 120920Z 32003KT 17/11 A3002 RMK A01 T01720114  RH  069%=      5-min Rain = 0
KCR1 120921Z 32004KT 17/11 A3002 RMK A01 T01710114  RH  069%=      5-min Rain = 0
KCR1 120922Z 32004KT 17/11 A3002 RMK A01 T01720114  RH  069%=      5-min Rain = 0
KCR1 120923Z 32004KT 17/11 A3002 RMK A01 T01720114  RH  069%=      5-min Rain = 0
KCR1 120924Z 32004KT 17/11 A3002 RMK A01 T01720114  RH  069%=      5-min Rain = 0
KCR1 120925Z 32004KT 17/11 A3002 RMK A01 T01720114  RH  069%=      5-min Rain = 0
KCR1 120926Z 32004KT 17/12 A3002 RMK A01 T01720115  RH  069%=      5-min Rain = 0
KCR1 120927Z 32004KT 17/11 A3002 RMK A01 T01710114  RH  069%=      5-min Rain = 0
KCR1 120928Z 32004KT 17/12 A3002 RMK A01 T01710115  RH  069%=      5-min Rain = 0
KCR1 120929Z 32004KT 17/11 A3002 RMK A01 T01710114  RH  069%=      5-min Rain = 0
KCR1 120930Z 32004KT 17/11 A3002 RMK A01 T01720114  RH  069%=      5-min Rain = 0
KCR1 120931Z 32004KT 17/11 A3002 RMK A01 T01730114  RH  068%=      5-min Rain = 0
KCR1 120932Z 32004KT 17/11 A3002 RMK A01 T01740114  RH  068%=      5-min Rain = 0
KCR1 120933Z 32004KT 18/11 A3002 RMK A01 T01750114  RH  067%=      5-min Rain = 0
KCR1 120934Z 32004KT 18/11 A3002 RMK A01 T01750114  RH  067%=      5-min Rain = 0
KCR1 120935Z 31004KT 18/11 A3002 RMK A01 T01750114  RH  067%=      5-min Rain = 0
KCR1 120936Z 32004KT 18/11 A3002 RMK A01 T01750114  RH  067%=      5-min Rain = 0
KCR1 120937Z 32004KT 18/11 A3002 RMK A01 T01750113  RH  067%=      5-min Rain = 0
KCR1 120938Z 32003KT 18/11 A3002 RMK A01 T01760114  RH  067%=      5-min Rain = 0
KCR1 120939Z 32003KT 18/11 A3001 RMK A01 T01750114  RH  067%=      5-min Rain = 0
KCR1 120940Z 33003KT 18/12 A3001 RMK A01 T01750115  RH  067%=      5-min Rain = 0
KCR1 120941Z 33004KT 18/12 A3001 RMK A01 T01750115  RH  068%=      5-min Rain = 0
KCR1 120942Z 33004KT 18/11 A3001 RMK A01 T01750114  RH  068%=      5-min Rain = 0
KCR1 120943Z 33004KT 18/11 A3001 RMK A01 T01750114  RH  067%=      5-min Rain = 0
KCR1 120944Z 33004KT 18/11 A3001 RMK A01 T01750114  RH  067%=      5-min Rain = 0
KCR1 120945Z 33004KT 18/11 A3001 RMK A01 T01750114  RH  067%=      5-min Rain = 0
KCR1 120946Z 33004KT 18/11 A3001 RMK A01 T01750114  RH  067%=      5-min Rain = 0
KCR1 120947Z 33004KT 18/11 A3001 RMK A01 T01750114  RH  067%=      5-min Rain = 0
KCR1 120948Z 33004KT 18/11 A3001 RMK A01 T01750114  RH  067%=      5-min Rain = 0
KCR1 120949Z 33004KT 17/11 A3001 RMK A01 T01740114  RH  068%=      5-min Rain = 0
KCR1 120950Z 33004KT 17/11 A3001 RMK A01 T01740114  RH  068%=      5-min Rain = 0
KCR1 120951Z 33004KT 17/11 A3001 RMK A01 T01740114  RH  068%=      5-min Rain = 0
KCR1 120952Z 33004KT 17/11 A3001 RMK A01 T01730114  RH  068%=      5-min Rain = 0
KCR1 120953Z 33004KT 17/11 A3001 RMK A01 T01730114  RH  068%=      5-min Rain = 0
KCR1 120954Z 33004KT 17/11 A3001 RMK A01 T01720114  RH  068%=      5-min Rain = 0
KCR1 120955Z 33004KT 17/11 A3001 RMK A01 T01720113  RH  068%=      5-min Rain = 0
KCR1 120956Z 33004KT 17/11 A3001 RMK A01 T01710113  RH  069%=      5-min Rain = 0
KCR1 120957Z 33004KT 17/11 A3001 RMK A01 T01710113  RH  069%=      5-min Rain = 0
KCR1 120958Z 33004KT 17/11 A3001 RMK A01 T01710113  RH  069%=      5-min Rain = 0
KCR1 120959Z 33004KT 17/11 A3001 RMK A01 T01710113  RH  069%=      5-min Rain = 0
KCR1 121000Z 33005KT 17/11 A3001 RMK A01 T01710113  RH  069%=      5-min Rain = 0
KCR1 121001Z 33005KT 17/11 A3001 RMK A01 T01710113  RH  069%=      5-min Rain = 0
KCR1 121002Z 32005KT 17/11 A3001 RMK A01 T01710113  RH  069%=      5-min Rain = 0
KCR1 121003Z 32005KT 17/11 A3001 RMK A01 T01710113  RH  069%=      5-min Rain = 0
KCR1 121004Z 32005KT 17/11 A3001 RMK A01 T01710113  RH  069%=      5-min Rain = 0
KCR1 121005Z 32005KT 17/11 A3001 RMK A01 T01710113  RH  069%=      5-min Rain = 0
KCR1 121006Z 33005KT 17/11 A3001 RMK A01 T01710113  RH  069%=      5-min Rain = 0
KCR1 121007Z 33005KT 17/11 A3001 RMK A01 T01710113  RH  069%=      5-min Rain = 0
KCR1 121008Z 33004KT 17/11 A3001 RMK A01 T01710113  RH  069%=      5-min Rain = 0
KCR1 121009Z 33004KT 17/11 A3001 RMK A01 T01710113  RH  069%=      5-min Rain = 0
KCR1 121010Z 33005KT 17/11 A3001 RMK A01 T01710113  RH  068%=      5-min Rain = 0
KCR1 121011Z 33005KT 17/11 A3002 RMK A01 T01720113  RH  068%=      5-min Rain = 0
KCR1 121012Z 33005KT 17/11 A3002 RMK A01 T01720112  RH  068%=      5-min Rain = 0
KCR1 121013Z 33005KT 17/11 A3002 RMK A01 T01720112  RH  068%=      5-min Rain = 0
KCR1 121014Z 33005KT 17/11 A3002 RMK A01 T01730112  RH  067%=      5-min Rain = 0
KCR1 121015Z 33005KT 17/11 A3002 RMK A01 T01730112  RH  067%=      5-min Rain = 0
KCR1 121016Z 33005KT 17/11 A3002 RMK A01 T01730112  RH  067%=      5-min Rain = 0
KCR1 121017Z 33005KT 17/11 A3002 RMK A01 T01720112  RH  068%=      5-min Rain = 0
KCR1 121018Z 33005KT 17/11 A3002 RMK A01 T01720112  RH  068%=      5-min Rain = 0
KCR1 121019Z 34005KT 17/11 A3002 RMK A01 T01720112  RH  068%=      5-min Rain = 0
KCR1 121020Z 34005KT 17/11 A3002 RMK A01 T01720112  RH  068%=      5-min Rain = 0
KCR1 121021Z 34005KT 17/11 A3002 RMK A01 T01720111  RH  068%=      5-min Rain = 0
KCR1 121022Z 34005KT 17/11 A3002 RMK A01 T01720112  RH  068%=      5-min Rain = 0
KCR1 121023Z 34005KT 17/11 A3002 RMK A01 T01720112  RH  068%=      5-min Rain = 0
KCR1 121024Z 34005KT 17/11 A3002 RMK A01 T01720112  RH  068%=      5-min Rain = 0
KCR1 121025Z 34005KT 17/11 A3002 RMK A01 T01720112  RH  068%=      5-min Rain = 0
KCR1 121026Z 34005KT 17/11 A3002 RMK A01 T01720112  RH  068%=      5-min Rain = 0
KCR1 121027Z 33005KT 17/11 A3002 RMK A01 T01720112  RH  068%=      5-min Rain = 0
KCR1 121028Z 33005KT 17/11 A3002 RMK A01 T01720113  RH  068%=      5-min Rain = 0
KCR1 121029Z 33005KT 17/11 A3002 RMK A01 T01710112  RH  068%=      5-min Rain = 0
KCR1 121030Z 33005KT 17/11 A3002 RMK A01 T01710112  RH  068%=      5-min Rain = 0
KCR1 121031Z 34005KT 17/11 A3002 RMK A01 T01710112  RH  068%=      5-min Rain = 0
KCR1 121032Z 34005KT 17/11 A3002 RMK A01 T01710112  RH  068%=      5-min Rain = 0
KCR1 121033Z 34005KT 17/11 A3002 RMK A01 T01710112  RH  068%=      5-min Rain = 0
KCR1 121034Z 34005KT 17/11 A3002 RMK A01 T01710112  RH  068%=      5-min Rain = 0
KCR1 121035Z 34005KT 17/11 A3002 RMK A01 T01710111  RH  068%=      5-min Rain = 0
KCR1 121036Z 34005KT 17/11 A3002 RMK A01 T01720111  RH  067%=      5-min Rain = 0
KCR1 121037Z 34006KT 17/11 A3002 RMK A01 T01720111  RH  068%=      5-min Rain = 0
KCR1 121038Z 34006KT 17/11 A3003 RMK A01 T01710111  RH  068%=      5-min Rain = 0
KCR1 121039Z 34006KT 17/11 A3003 RMK A01 T01720111  RH  068%=      5-min Rain = 0
KCR1 121040Z 34006KT 17/11 A3003 RMK A01 T01720113  RH  068%=      5-min Rain = 0
KCR1 121041Z 33006KT 17/11 A3003 RMK A01 T01710113  RH  069%=      5-min Rain = 0
KCR1 121042Z 33006KT 17/11 A3002 RMK A01 T01700113  RH  069%=      5-min Rain = 0
KCR1 121043Z 33006KT 17/11 A3002 RMK A01 T01700113  RH  069%=      5-min Rain = 0
KCR1 121044Z 33006KT 17/11 A3003 RMK A01 T01700113  RH  069%=      5-min Rain = 0
KCR1 121045Z 33006KT 17/11 A3003 RMK A01 T01700113  RH  069%=      5-min Rain = 0
KCR1 121046Z 33005KT 17/11 A3003 RMK A01 T01700113  RH  069%=      5-min Rain = 0
KCR1 121047Z 33005KT 17/11 A3003 RMK A01 T01700114  RH  069%=      5-min Rain = 0
KCR1 121048Z 33005KT 17/11 A3003 RMK A01 T01700114  RH  069%=      5-min Rain = 0
KCR1 121049Z 33006KT 17/11 A3003 RMK A01 T01700114  RH  069%=      5-min Rain = 0
KCR1 121050Z 33005KT 17/11 A3003 RMK A01 T01700114  RH  069%=      5-min Rain = 0
KCR1 121051Z 33005KT 17/11 A3003 RMK A01 T01700113  RH  069%=      5-min Rain = 0
KCR1 121052Z 33006KT 17/11 A3003 RMK A01 T01700114  RH  069%=      5-min Rain = 0
KCR1 121053Z 33006KT 17/11 A3003 RMK A01 T01700114  RH  069%=      5-min Rain = 0
KCR1 121054Z 33006KT 17/11 A3003 RMK A01 T01700114  RH  070%=      5-min Rain = 0
KCR1 121055Z 33006KT 17/11 A3003 RMK A01 T01700114  RH  070%=      5-min Rain = 0
KCR1 121056Z 33006KT 17/11 A3003 RMK A01 T01700114  RH  070%=      5-min Rain = 0
KCR1 121057Z 33006KT 17/11 A3003 RMK A01 T01700114  RH  069%=      5-min Rain = 0
KCR1 121058Z 32005KT 17/11 A3003 RMK A01 T01700114  RH  069%=      5-min Rain = 0
KCR1 121059Z 33005KT 17/11 A3003 RMK A01 T01700114  RH  069%=      5-min Rain = 0
KCR1 121100Z 33005KT 17/11 A3003 RMK A01 T01700114  RH  069%=      5-min Rain = 0
KCR1 121101Z 33005KT 17/11 A3003 RMK A01 T01700114  RH  069%=      5-min Rain = 0
KCR1 121102Z 33005KT 17/11 A3003 RMK A01 T01700113  RH  069%=      5-min Rain = 0
KCR1 121103Z 33005KT 17/11 A3003 RMK A01 T01690113  RH  069%=      5-min Rain = 0
KCR1 121104Z 33005KT 17/11 A3003 RMK A01 T01690113  RH  069%=      5-min Rain = 0
KCR1 121105Z 33005KT 17/11 A3002 RMK A01 T01690113  RH  069%=      5-min Rain = 0
KCR1 121106Z 33005KT 17/11 A3002 RMK A01 T01690113  RH  070%=      5-min Rain = 0
KCR1 121107Z 33005KT 17/11 A3002 RMK A01 T01680113  RH  070%=      5-min Rain = 0
KCR1 121108Z 33006KT 17/11 A3002 RMK A01 T01690113  RH  070%=      5-min Rain = 0
KCR1 121109Z 33006KT 17/11 A3002 RMK A01 T01690113  RH  070%=      5-min Rain = 0
KCR1 121110Z 33006KT 17/11 A3002 RMK A01 T01690113  RH  070%=      5-min Rain = 0
KCR1 121111Z 33006KT 17/11 A3002 RMK A01 T01690113  RH  069%=      5-min Rain = 0
KCR1 121112Z 33006KT 17/11 A3002 RMK A01 T01690112  RH  069%=      5-min Rain = 0
KCR1 121113Z 33006KT 17/11 A3002 RMK A01 T01700113  RH  069%=      5-min Rain = 0
KCR1 121114Z 33006KT 17/11 A3002 RMK A01 T01700113  RH  069%=      5-min Rain = 0
KCR1 121115Z 33006KT 17/11 A3002 RMK A01 T01700112  RH  069%=      5-min Rain = 0
KCR1 121116Z 33006KT 17/11 A3002 RMK A01 T01700112  RH  069%=      5-min Rain = 0
KCR1 121117Z 33006KT 17/11 A3002 RMK A01 T01700112  RH  069%=      5-min Rain = 0
KCR1 121118Z 33005KT 17/11 A3002 RMK A01 T01700113  RH  069%=      5-min Rain = 0
KCR1 121119Z 33005KT 17/11 A3002 RMK A01 T01700113  RH  069%=      5-min Rain = 0
KCR1 121120Z 33005KT 17/11 A3002 RMK A01 T01690113  RH  069%=      5-min Rain = 0
KCR1 121121Z 33005KT 17/11 A3003 RMK A01 T01690113  RH  069%=      5-min Rain = 0
KCR1 121122Z 33005KT 17/11 A3003 RMK A01 T01690113  RH  070%=      5-min Rain = 0
KCR1 121123Z 33005KT 17/11 A3003 RMK A01 T01690113  RH  070%=      5-min Rain = 0
KCR1 121124Z 33005KT 17/11 A3003 RMK A01 T01690113  RH  069%=      5-min Rain = 0
KCR1 121125Z 33005KT 17/11 A3003 RMK A01 T01680112  RH  069%=      5-min Rain = 0
KCR1 121126Z 33005KT 17/11 A3003 RMK A01 T01680112  RH  069%=      5-min Rain = 0
KCR1 121127Z 33005KT 17/11 A3003 RMK A01 T01680112  RH  069%=      5-min Rain = 0
KCR1 121128Z 32006KT 17/11 A3002 RMK A01 T01680112  RH  069%=      5-min Rain = 0
KCR1 121129Z 33005KT 17/11 A3002 RMK A01 T01690112  RH  069%=      5-min Rain = 0
KCR1 121130Z 33005KT 17/11 A3002 RMK A01 T01690112  RH  069%=      5-min Rain = 0
KCR1 121131Z 33005KT 17/11 A3002 RMK A01 T01690112  RH  069%=      5-min Rain = 0
KCR1 121132Z 33006KT 17/11 A3002 RMK A01 T01700112  RH  069%=      5-min Rain = 0
KCR1 121133Z 33006KT 17/11 A3002 RMK A01 T01700112  RH  069%=      5-min Rain = 0
KCR1 121134Z 33006KT 17/11 A3002 RMK A01 T01700112  RH  069%=      5-min Rain = 0
KCR1 121135Z 33006KT 17/11 A3002 RMK A01 T01700112  RH  069%=      5-min Rain = 0
KCR1 121136Z 33006KT 17/11 A3002 RMK A01 T01700112  RH  069%=      5-min Rain = 0
KCR1 121137Z 33006KT 17/11 A3002 RMK A01 T01700112  RH  068%=      5-min Rain = 0
KCR1 121138Z 33006KT 17/11 A3002 RMK A01 T01710112  RH  068%=      5-min Rain = 0
KCR1 121139Z 32006KT 17/11 A3002 RMK A01 T01710112  RH  068%=      5-min Rain = 0
KCR1 121140Z 33006KT 17/11 A3002 RMK A01 T01710112  RH  068%=      5-min Rain = 0
KCR1 121141Z 33006KT 17/11 A3002 RMK A01 T01710112  RH  068%=      5-min Rain = 0
KCR1 121142Z 33006KT 17/11 A3002 RMK A01 T01720112  RH  068%=      5-min Rain = 0
KCR1 121143Z 32006KT 17/11 A3002 RMK A01 T01720111  RH  067%=      5-min Rain = 0
KCR1 121144Z 33006KT 17/11 A3002 RMK A01 T01720111  RH  067%=      5-min Rain = 0
KCR1 121145Z 32007KT 17/11 A3002 RMK A01 T01730111  RH  067%=      5-min Rain = 0
KCR1 121146Z 32006KT 17/11 A3002 RMK A01 T01730111  RH  067%=      5-min Rain = 0
KCR1 121147Z 32006KT 17/11 A3002 RMK A01 T01730111  RH  067%=      5-min Rain = 0
KCR1 121148Z 32005KT 17/11 A3002 RMK A01 T01720111  RH  067%=      5-min Rain = 0
KCR1 121149Z 32005KT 17/11 A3002 RMK A01 T01730111  RH  067%=      5-min Rain = 0
KCR1 121150Z 32006KT 17/11 A3002 RMK A01 T01730111  RH  067%=      5-min Rain = 0
KCR1 121151Z 33006KT 17/11 A3002 RMK A01 T01740111  RH  067%=      5-min Rain = 0
KCR1 121152Z 33006KT 17/11 A3002 RMK A01 T01740111  RH  067%=      5-min Rain = 0
KCR1 121153Z 33006KT 17/11 A3003 RMK A01 T01740111  RH  066%=      5-min Rain = 0
KCR1 121154Z 32006KT 17/11 A3003 RMK A01 T01740112  RH  067%=      5-min Rain = 0
KCR1 121155Z 32006KT 17/11 A3003 RMK A01 T01740112  RH  067%=      5-min Rain = 0
KCR1 121156Z 32006KT 17/11 A3003 RMK A01 T01740112  RH  067%=      5-min Rain = 0
KCR1 121157Z 32006KT 17/11 A3003 RMK A01 T01730112  RH  067%=      5-min Rain = 0
KCR1 121158Z 32006KT 17/11 A3003 RMK A01 T01730111  RH  067%=      5-min Rain = 0
KCR1 121159Z 32006KT 17/11 A3003 RMK A01 T01730111  RH  067%=      5-min Rain = 0
KCR1 121200Z 32007KT 17/11 A3003 RMK A01 T01730112  RH  067%=      5-min Rain = 0
KCR1 121201Z 33006KT 17/11 A3003 RMK A01 T01730111  RH  067%=      5-min Rain = 0
KCR1 121202Z 32007KT 17/11 A3003 RMK A01 T01730111  RH  067%=      5-min Rain = 0
KCR1 121203Z 32007KT 17/11 A3003 RMK A01 T01720112  RH  067%=      5-min Rain = 0
KCR1 121204Z 32006KT 17/11 A3003 RMK A01 T01720112  RH  068%=      5-min Rain = 0
KCR1 121205Z 32006KT 17/11 A3003 RMK A01 T01710112  RH  068%=      5-min Rain = 0
KCR1 121206Z 32006KT 17/11 A3003 RMK A01 T01710112  RH  068%=      5-min Rain = 0
KCR1 121207Z 32006KT 17/11 A3003 RMK A01 T01710111  RH  068%=      5-min Rain = 0
KCR1 121208Z 32006KT 17/11 A3003 RMK A01 T01700111  RH  068%=      5-min Rain = 0
KCR1 121209Z 32006KT 17/11 A3003 RMK A01 T01700111  RH  068%=      5-min Rain = 0
KCR1 121210Z 32006KT 17/11 A3003 RMK A01 T01710111  RH  068%=      5-min Rain = 0
KCR1 121211Z 33006KT 17/11 A3003 RMK A01 T01710111  RH  068%=      5-min Rain = 0
KCR1 121212Z 33005KT 17/11 A3003 RMK A01 T01710111  RH  068%=      5-min Rain = 0
KCR1 121213Z 32006KT 17/11 A3003 RMK A01 T01710111  RH  068%=      5-min Rain = 0
KCR1 121214Z 32006KT 17/11 A3003 RMK A01 T01710111  RH  068%=      5-min Rain = 0
KCR1 121215Z 32006KT 17/11 A3003 RMK A01 T01710111  RH  068%=      5-min Rain = 0
KCR1 121216Z 33006KT 17/11 A3003 RMK A01 T01710111  RH  068%=      5-min Rain = 0
KCR1 121217Z 33006KT 17/11 A3003 RMK A01 T01720111  RH  068%=      5-min Rain = 0
KCR1 121218Z 33005KT 17/11 A3003 RMK A01 T01720111  RH  068%=      5-min Rain = 0
KCR1 121219Z 33005KT 17/11 A3003 RMK A01 T01720111  RH  068%=      5-min Rain = 0
KCR1 121220Z 33005KT 17/11 A3003 RMK A01 T01710112  RH  068%=      5-min Rain = 0
KCR1 121221Z 33005KT 17/11 A3003 RMK A01 T01710112  RH  068%=      5-min Rain = 0
KCR1 121222Z 34005KT 17/11 A3003 RMK A01 T01710111  RH  068%=      5-min Rain = 0
KCR1 121223Z 33005KT 17/11 A3003 RMK A01 T01700111  RH  068%=      5-min Rain = 0
KCR1 121224Z 33005KT 17/11 A3003 RMK A01 T01690111  RH  068%=      5-min Rain = 0
KCR1 121225Z 33006KT 17/11 A3003 RMK A01 T01690111  RH  069%=      5-min Rain = 0
KCR1 121226Z 33006KT 17/11 A3003 RMK A01 T01680111  RH  069%=      5-min Rain = 0
KCR1 121227Z 33006KT 17/11 A3003 RMK A01 T01690111  RH  069%=      5-min Rain = 0
KCR1 121228Z 33006KT 17/11 A3003 RMK A01 T01680111  RH  069%=      5-min Rain = 0
KCR1 121229Z 33006KT 17/11 A3003 RMK A01 T01690111  RH  069%=      5-min Rain = 0
KCR1 121230Z 33006KT 17/11 A3003 RMK A01 T01690111  RH  069%=      5-min Rain = 0
KCR1 121231Z 33006KT 17/11 A3003 RMK A01 T01690111  RH  069%=      5-min Rain = 0
KCR1 121232Z 33005KT 17/11 A3003 RMK A01 T01690111  RH  069%=      5-min Rain = 0
KCR1 121233Z 33005KT 17/11 A3003 RMK A01 T01690111  RH  069%=      5-min Rain = 0
KCR1 121234Z 33005KT 17/11 A3003 RMK A01 T01690111  RH  069%=      5-min Rain = 0
KCR1 121235Z 33005KT 17/11 A3003 RMK A01 T01690111  RH  069%=      5-min Rain = 0
KCR1 121236Z 33005KT 17/11 A3003 RMK A01 T01690111  RH  069%=      5-min Rain = 0
KCR1 121237Z 33005KT 17/11 A3003 RMK A01 T01690111  RH  069%=      5-min Rain = 0
KCR1 121238Z 33005KT 17/11 A3003 RMK A01 T01690112  RH  069%=      5-min Rain = 0
KCR1 121239Z 33005KT 17/11 A3003 RMK A01 T01680112  RH  069%=      5-min Rain = 0
KCR1 121240Z 33005KT 17/11 A3003 RMK A01 T01680112  RH  069%=      5-min Rain = 0
KCR1 121241Z 33005KT 17/11 A3003 RMK A01 T01690112  RH  069%=      5-min Rain = 0
KCR1 121242Z 33005KT 17/11 A3003 RMK A01 T01690112  RH  069%=      5-min Rain = 0
KCR1 121243Z 33005KT 17/11 A3003 RMK A01 T01690112  RH  069%=      5-min Rain = 0
KCR1 121244Z 32005KT 17/11 A3003 RMK A01 T01700112  RH  069%=      5-min Rain = 0
KCR1 121245Z 32005KT 17/11 A3003 RMK A01 T01700112  RH  069%=      5-min Rain = 0
KCR1 121246Z 32005KT 17/11 A3003 RMK A01 T01700113  RH  069%=      5-min Rain = 0
KCR1 121247Z 33006KT 17/11 A3003 RMK A01 T01700112  RH  069%=      5-min Rain = 0
KCR1 121248Z 33005KT 17/11 A3003 RMK A01 T01700112  RH  069%=      5-min Rain = 0
KCR1 121249Z 33006KT 17/11 A3003 RMK A01 T01710112  RH  068%=      5-min Rain = 0
KCR1 121250Z 33006KT 17/11 A3003 RMK A01 T01710112  RH  068%=      5-min Rain = 0
KCR1 121251Z 33005KT 17/11 A3003 RMK A01 T01720112  RH  068%=      5-min Rain = 0
KCR1 121252Z 33005KT 17/11 A3003 RMK A01 T01730112  RH  068%=      5-min Rain = 0
KCR1 121253Z 33006KT 17/11 A3003 RMK A01 T01730112  RH  068%=      5-min Rain = 0
KCR1 121254Z 33006KT 17/11 A3003 RMK A01 T01740113  RH  067%=      5-min Rain = 0
KCR1 121255Z 33005KT 17/11 A3003 RMK A01 T01740113  RH  067%=      5-min Rain = 0
KCR1 121256Z 33005KT 17/11 A3003 RMK A01 T01740113  RH  067%=      5-min Rain = 0
KCR1 121257Z 33005KT 18/11 A3003 RMK A01 T01750113  RH  067%=      5-min Rain = 0
KCR1 121258Z 33005KT 18/11 A3003 RMK A01 T01750113  RH  067%=      5-min Rain = 0
KCR1 121259Z 33005KT 18/11 A3003 RMK A01 T01750113  RH  067%=      5-min Rain = 0
KCR1 121300Z 33005KT 18/11 A3003 RMK A01 T01760113  RH  067%=      5-min Rain = 0
KCR1 121301Z 34005KT 18/11 A3003 RMK A01 T01760113  RH  066%=      5-min Rain = 0
KCR1 121302Z 34005KT 18/11 A3003 RMK A01 T01760113  RH  066%=      5-min Rain = 0
KCR1 121303Z 34005KT 18/11 A3003 RMK A01 T01770113  RH  066%=      5-min Rain = 0
KCR1 121304Z 34005KT 18/11 A3003 RMK A01 T01770113  RH  066%=      5-min Rain = 0
KCR1 121305Z 34005KT 18/11 A3003 RMK A01 T01770112  RH  066%=      5-min Rain = 0
KCR1 121306Z 34005KT 18/11 A3003 RMK A01 T01770112  RH  066%=      5-min Rain = 0
KCR1 121307Z 34005KT 18/11 A3003 RMK A01 T01770113  RH  066%=      5-min Rain = 0
KCR1 121308Z 35005KT 18/11 A3003 RMK A01 T01770113  RH  066%=      5-min Rain = 0
KCR1 121309Z 34005KT 18/11 A3003 RMK A01 T01770113  RH  066%=      5-min Rain = 0
KCR1 121310Z 34005KT 18/11 A3003 RMK A01 T01770113  RH  066%=      5-min Rain = 0
KCR1 121311Z 34005KT 18/11 A3003 RMK A01 T01770114  RH  066%=      5-min Rain = 0
KCR1 121312Z 34005KT 18/11 A3003 RMK A01 T01770114  RH  066%=      5-min Rain = 0
KCR1 121313Z 34005KT 18/11 A3003 RMK A01 T01770114  RH  066%=      5-min Rain = 0
KCR1 121314Z 34006KT 18/11 A3003 RMK A01 T01770114  RH  067%=      5-min Rain = 0
KCR1 121315Z 34005KT 18/11 A3003 RMK A01 T01770114  RH  066%=      5-min Rain = 0
KCR1 121316Z 34005KT 18/11 A3003 RMK A01 T01780114  RH  066%=      5-min Rain = 0
KCR1 121317Z 34005KT 18/12 A3003 RMK A01 T01780115  RH  066%=      5-min Rain = 0
KCR1 121318Z 35005KT 18/11 A3003 RMK A01 T01790114  RH  066%=      5-min Rain = 0
KCR1 121319Z 35005KT 18/12 A3003 RMK A01 T01790115  RH  066%=      5-min Rain = 0
KCR1 121320Z 35005KT 18/12 A3003 RMK A01 T01790115  RH  066%=      5-min Rain = 0
KCR1 121321Z 35005KT 18/12 A3003 RMK A01 T01790115  RH  066%=      5-min Rain = 0
KCR1 121322Z 35005KT 18/12 A3003 RMK A01 T01790115  RH  066%=      5-min Rain = 0
KCR1 121323Z 35005KT 18/12 A3003 RMK A01 T01800115  RH  066%=      5-min Rain = 0
KCR1 121324Z 35005KT 18/12 A3003 RMK A01 T01800115  RH  066%=      5-min Rain = 0
KCR1 121325Z 35005KT 18/12 A3003 RMK A01 T01800115  RH  066%=      5-min Rain = 0
KCR1 121326Z 35005KT 18/12 A3003 RMK A01 T01810116  RH  066%=      5-min Rain = 0
KCR1 121327Z 35005KT 18/12 A3003 RMK A01 T01810116  RH  066%=      5-min Rain = 0
KCR1 121328Z 34005KT 18/12 A3003 RMK A01 T01810116  RH  066%=      5-min Rain = 0
KCR1 121329Z 34005KT 18/12 A3003 RMK A01 T01820116  RH  065%=      5-min Rain = 0
KCR1 121330Z 34006KT 18/12 A3003 RMK A01 T01820116  RH  066%=      5-min Rain = 0
KCR1 121331Z 34005KT 18/12 A3003 RMK A01 T01830117  RH  065%=      5-min Rain = 0
KCR1 121332Z 34005KT 18/12 A3003 RMK A01 T01820116  RH  065%=      5-min Rain = 0
KCR1 121333Z 34005KT 18/12 A3003 RMK A01 T01830117  RH  065%=      5-min Rain = 0
KCR1 121334Z 34005KT 18/12 A3003 RMK A01 T01840118  RH  065%=      5-min Rain = 0
KCR1 121335Z 34005KT 18/12 A3003 RMK A01 T01840118  RH  065%=      5-min Rain = 0
KCR1 121336Z 34005KT 19/12 A3003 RMK A01 T01850118  RH  065%=      5-min Rain = 0
KCR1 121337Z 34005KT 19/12 A3003 RMK A01 T01860118  RH  065%=      5-min Rain = 0
KCR1 121338Z 34005KT 19/12 A3003 RMK A01 T01870118  RH  064%=      5-min Rain = 0
KCR1 121339Z 34005KT 19/12 A3003 RMK A01 T01870119  RH  064%=      5-min Rain = 0
KCR1 121340Z 34005KT 19/12 A3003 RMK A01 T01880119  RH  064%=      5-min Rain = 0
KCR1 121341Z 34005KT 19/12 A3003 RMK A01 T01890120  RH  064%=      5-min Rain = 0
KCR1 121342Z 34005KT 19/12 A3003 RMK A01 T01900120  RH  064%=      5-min Rain = 0
KCR1 121343Z 34005KT 19/12 A3003 RMK A01 T01910120  RH  063%=      5-min Rain = 0
KCR1 121344Z 34005KT 19/12 A3003 RMK A01 T01920119  RH  063%=      5-min Rain = 0
KCR1 121345Z 34006KT 19/12 A3003 RMK A01 T01920118  RH  062%=      5-min Rain = 0
KCR1 121346Z 35005KT 19/12 A3003 RMK A01 T01930118  RH  062%=      5-min Rain = 0
KCR1 121347Z 35005KT 19/12 A3003 RMK A01 T01930118  RH  062%=      5-min Rain = 0
KCR1 121348Z 34005KT 19/12 A3003 RMK A01 T01940118  RH  062%=      5-min Rain = 0
KCR1 121349Z 35004KT 19/12 A3003 RMK A01 T01940119  RH  062%=      5-min Rain = 0
KCR1 121350Z 35004KT 20/12 A3003 RMK A01 T01950120  RH  062%=      5-min Rain = 0
KCR1 121351Z 34004KT 20/12 A3003 RMK A01 T01960120  RH  061%=      5-min Rain = 0
KCR1 121352Z 34004KT 20/12 A3003 RMK A01 T01960120  RH  061%=      5-min Rain = 0
KCR1 121353Z 35004KT 20/12 A3003 RMK A01 T01970119  RH  061%=      5-min Rain = 0
KCR1 121354Z 34004KT 20/12 A3003 RMK A01 T01980120  RH  061%=      5-min Rain = 0
KCR1 121355Z 35003KT 20/12 A3003 RMK A01 T01980120  RH  061%=      5-min Rain = 0
KCR1 121356Z 34004KT 20/12 A3003 RMK A01 T01990121  RH  061%=      5-min Rain = 0
KCR1 121357Z 35003KT 20/12 A3003 RMK A01 T01990121  RH  061%=      5-min Rain = 0
KCR1 121358Z 35003KT 20/12 A3003 RMK A01 T02000121  RH  060%=      5-min Rain = 0
KCR1 121359Z 35003KT 20/12 A3003 RMK A01 T02020121  RH  060%=      5-min Rain = 0
KCR1 121400Z 34003KT 20/12 A3003 RMK A01 T02030122  RH  060%=      5-min Rain = 0
KCR1 121401Z 34003KT 20/12 A3003 RMK A01 T02030121  RH  059%=      5-min Rain = 0
KCR1 121402Z 34004KT 20/12 A3003 RMK A01 T02040121  RH  059%=      5-min Rain = 0
KCR1 121403Z 34003KT 20/12 A3003 RMK A01 T02040122  RH  059%=      5-min Rain = 0
KCR1 121404Z 34003KT 21/12 A3003 RMK A01 T02050124  RH  060%=      5-min Rain = 0
KCR1 121405Z 34003KT 21/12 A3003 RMK A01 T02060122  RH  058%=      5-min Rain = 0
KCR1 121406Z 34003KT 21/12 A3003 RMK A01 T02070123  RH  059%=      5-min Rain = 0
KCR1 121407Z 34003KT 21/12 A3003 RMK A01 T02070122  RH  058%=      5-min Rain = 0
KCR1 121408Z 33003KT 21/12 A3003 RMK A01 T02070124  RH  059%=      5-min Rain = 0
KCR1 121409Z 35004KT 21/12 A3003 RMK A01 T02080123  RH  058%=      5-min Rain = 0
KCR1 121410Z 35003KT 21/12 A3003 RMK A01 T02080121  RH  057%=      5-min Rain = 0
KCR1 121411Z 33003KT 21/12 A3003 RMK A01 T02090123  RH  058%=      5-min Rain = 0
KCR1 121412Z 33002KT 21/13 A3003 RMK A01 T02100125  RH  058%=      5-min Rain = 0
KCR1 121413Z 33003KT 21/13 A3003 RMK A01 T02110125  RH  058%=      5-min Rain = 0
KCR1 121414Z 32003KT 21/12 A3003 RMK A01 T02120123  RH  057%=      5-min Rain = 0
KCR1 121415Z 33003KT 21/12 A3002 RMK A01 T02120123  RH  057%=      5-min Rain = 0
KCR1 121416Z 32003KT 21/12 A3002 RMK A01 T02130123  RH  056%=      5-min Rain = 0
KCR1 121417Z 32003KT 21/12 A3002 RMK A01 T02140122  RH  056%=      5-min Rain = 0
KCR1 121418Z 32002KT 21/12 A3002 RMK A01 T02140123  RH  056%=      5-min Rain = 0
KCR1 121419Z 31003KT 22/12 A3002 RMK A01 T02150123  RH  056%=      5-min Rain = 0
KCR1 121420Z 31003KT 22/12 A3002 RMK A01 T02160124  RH  056%=      5-min Rain = 0
KCR1 121421Z 32003KT 22/12 A3002 RMK A01 T02180123  RH  055%=      5-min Rain = 0
KCR1 121422Z 33004KT 22/12 A3002 RMK A01 T02190121  RH  054%=      5-min Rain = 0
KCR1 121423Z 33003KT 22/12 A3002 RMK A01 T02190120  RH  053%=      5-min Rain = 0
KCR1 121424Z 33002KT 22/12 A3002 RMK A01 T02190122  RH  054%=      5-min Rain = 0
KCR1 121425Z 35002KT 22/12 A3002 RMK A01 T02200122  RH  054%=      5-min Rain = 0
KCR1 121426Z 33002KT 22/12 A3003 RMK A01 T02200122  RH  054%=      5-min Rain = 0
KCR1 121427Z 31003KT 22/12 A3003 RMK A01 T02220121  RH  053%=      5-min Rain = 0
KCR1 121428Z 31002KT 22/12 A3003 RMK A01 T02230121  RH  052%=      5-min Rain = 0
KCR1 121429Z 31003KT 22/12 A3003 RMK A01 T02230121  RH  052%=      5-min Rain = 0
KCR1 121430Z 30003KT 22/12 A3003 RMK A01 T02240121  RH  052%=      5-min Rain = 0
KCR1 121431Z 31003KT 22/12 A3003 RMK A01 T02230122  RH  053%=      5-min Rain = 0
KCR1 121432Z 32003KT 23/12 A3003 RMK A01 T02250123  RH  053%=      5-min Rain = 0
KCR1 121433Z 31003KT 23/12 A3003 RMK A01 T02260123  RH  052%=      5-min Rain = 0
KCR1 121434Z 31004KT 23/12 A3003 RMK A01 T02280122  RH  051%=      5-min Rain = 0
KCR1 121435Z 30004KT 23/12 A3003 RMK A01 T02280120  RH  050%=      5-min Rain = 0
KCR1 121436Z 31004KT 23/12 A3003 RMK A01 T02280121  RH  051%=      5-min Rain = 0
KCR1 121437Z 31003KT 23/12 A3003 RMK A01 T02270122  RH  051%=      5-min Rain = 0
KCR1 121438Z 31003KT 23/12 A3003 RMK A01 T02270122  RH  051%=      5-min Rain = 0
KCR1 121439Z 32003KT 23/12 A3003 RMK A01 T02270122  RH  052%=      5-min Rain = 0
KCR1 121440Z 31003KT 23/12 A3003 RMK A01 T02270122  RH  051%=      5-min Rain = 0
KCR1 121441Z 30003KT 23/12 A3003 RMK A01 T02280123  RH  052%=      5-min Rain = 0
KCR1 121442Z 30004KT 23/12 A3003 RMK A01 T02290121  RH  051%=      5-min Rain = 0
KCR1 121443Z 30004KT 23/12 A3003 RMK A01 T02300121  RH  050%=      5-min Rain = 0
KCR1 121444Z 30003KT 23/12 A3003 RMK A01 T02310122  RH  050%=      5-min Rain = 0
KCR1 121445Z 30003KT 23/12 A3003 RMK A01 T02320120  RH  049%=      5-min Rain = 0
KCR1 121446Z 29002KT 23/12 A3003 RMK A01 T02330123  RH  050%=      5-min Rain = 0
KCR1 121447Z 31003KT 23/12 A3003 RMK A01 T02330123  RH  050%=      5-min Rain = 0
KCR1 121448Z 32002KT 23/12 A3003 RMK A01 T02340123  RH  050%=      5-min Rain = 0
KCR1 121449Z 32002KT 24/12 A3003 RMK A01 T02350123  RH  049%=      5-min Rain = 0
KCR1 121450Z 32002KT 24/12 A3003 RMK A01 T02360120  RH  048%=      5-min Rain = 0
KCR1 121451Z 33001KT 24/12 A3003 RMK A01 T02360121  RH  048%=      5-min Rain = 0
KCR1 121452Z 33001KT 24/12 A3003 RMK A01 T02370121  RH  048%=      5-min Rain = 0
KCR1 121453Z 34002KT 24/12 A3003 RMK A01 T02370122  RH  049%=      5-min Rain = 0
KCR1 121454Z 30003KT 24/12 A3003 RMK A01 T02380123  RH  048%=      5-min Rain = 0
KCR1 121455Z 28002KT 24/12 A3003 RMK A01 T02390119  RH  047%=      5-min Rain = 0
KCR1 121456Z 34000KT 24/12 A3003 RMK A01 T02390119  RH  047%=      5-min Rain = 0
KCR1 121457Z 31002KT 24/12 A3003 RMK A01 T02390119  RH  047%=      5-min Rain = 0
KCR1 121458Z 29002KT 24/12 A3003 RMK A01 T02390120  RH  047%=      5-min Rain = 0
KCR1 121459Z 28003KT 24/12 A3003 RMK A01 T02400122  RH  047%=      5-min Rain = 0
KCR1 121500Z 30003KT 24/12 A3003 RMK A01 T02410122  RH  047%=      5-min Rain = 0
KCR1 121501Z 29003KT 24/12 A3003 RMK A01 T02420121  RH  047%=      5-min Rain = 0
KCR1 121502Z 28003KT 24/12 A3003 RMK A01 T02430118  RH  045%=      5-min Rain = 0
KCR1 121503Z 27002KT 24/12 A3002 RMK A01 T02440116  RH  044%=      5-min Rain = 0
KCR1 121504Z 27002KT 24/12 A3002 RMK A01 T02440118  RH  045%=      5-min Rain = 0
KCR1 121505Z 28002KT 25/12 A3002 RMK A01 T02450117  RH  045%=      5-min Rain = 0
KCR1 121506Z 28003KT 25/12 A3002 RMK A01 T02460119  RH  045%=      5-min Rain = 0
KCR1 121507Z 28004KT 25/12 A3002 RMK A01 T02480119  RH  044%=      5-min Rain = 0
KCR1 121508Z 28003KT 25/12 A3002 RMK A01 T02480118  RH  044%=      5-min Rain = 0
KCR1 121509Z 28003KT 25/12 A3002 RMK A01 T02480118  RH  044%=      5-min Rain = 0
KCR1 121510Z 26003KT 25/12 A3002 RMK A01 T02480120  RH  045%=      5-min Rain = 0
KCR1 121511Z 27002KT 25/12 A3002 RMK A01 T02480118  RH  044%=      5-min Rain = 0
KCR1 121512Z 31000KT 25/12 A3002 RMK A01 T02480119  RH  044%=      5-min Rain = 0
KCR1 121513Z 20001KT 25/12 A3002 RMK A01 T02500117  RH  044%=      5-min Rain = 0
KCR1 121514Z 30002KT 25/12 A3002 RMK A01 T02520119  RH  043%=      5-min Rain = 0
KCR1 121515Z 32002KT 25/12 A3002 RMK A01 T02520118  RH  043%=      5-min Rain = 0
KCR1 121516Z 31002KT 25/12 A3002 RMK A01 T02510119  RH  044%=      5-min Rain = 0
KCR1 121517Z 26002KT 25/12 A3002 RMK A01 T02510121  RH  044%=      5-min Rain = 0
KCR1 121518Z 27002KT 25/12 A3002 RMK A01 T02520120  RH  044%=      5-min Rain = 0
KCR1 121519Z 27003KT 25/12 A3002 RMK A01 T02530120  RH  044%=      5-min Rain = 0
KCR1 121520Z 25001KT 25/12 A3002 RMK A01 T02530119  RH  043%=      5-min Rain = 0
KCR1 121521Z 23001KT 25/12 A3002 RMK A01 T02520119  RH  043%=      5-min Rain = 0
KCR1 121522Z 32002KT 25/12 A3002 RMK A01 T02530119  RH  043%=      5-min Rain = 0
KCR1 121523Z 32002KT 25/12 A3002 RMK A01 T02540120  RH  043%=      5-min Rain = 0
KCR1 121524Z 33003KT 25/12 A3002 RMK A01 T02540120  RH  043%=      5-min Rain = 0
KCR1 121525Z 35002KT 25/12 A3002 RMK A01 T02540121  RH  043%=      5-min Rain = 0
KCR1 121526Z 36001KT 26/12 A3002 RMK A01 T02550122  RH  043%=      5-min Rain = 0
KCR1 121527Z 32001KT 26/12 A3002 RMK A01 T02570123  RH  043%=      5-min Rain = 0
KCR1 121528Z 31002KT 26/12 A3002 RMK A01 T02580121  RH  042%=      5-min Rain = 0
KCR1 121529Z 30001KT 26/12 A3002 RMK A01 T02580119  RH  042%=      5-min Rain = 0
KCR1 121530Z 29002KT 26/12 A3002 RMK A01 T02580120  RH  042%=      5-min Rain = 0
KCR1 121531Z 30002KT 26/12 A3001 RMK A01 T02580121  RH  043%=      5-min Rain = 0
KCR1 121532Z 26004KT 26/12 A3001 RMK A01 T02580121  RH  042%=      5-min Rain = 0
KCR1 121533Z 26004KT 26/12 A3001 RMK A01 T02580119  RH  042%=      5-min Rain = 0
KCR1 121534Z 25002KT 26/12 A3001 RMK A01 T02570118  RH  042%=      5-min Rain = 0
KCR1 121535Z 26003KT 26/12 A3001 RMK A01 T02570119  RH  042%=      5-min Rain = 0
KCR1 121536Z 24002KT 26/12 A3001 RMK A01 T02580120  RH  042%=      5-min Rain = 0
KCR1 121537Z 27002KT 26/12 A3001 RMK A01 T02590120  RH  042%=      5-min Rain = 0
KCR1 121538Z 29001KT 26/12 A3001 RMK A01 T02600117  RH  041%=      5-min Rain = 0
KCR1 121539Z 30002KT 26/12 A3001 RMK A01 T02600120  RH  042%=      5-min Rain = 0
KCR1 121540Z 29002KT 26/12 A3001 RMK A01 T02620121  RH  041%=      5-min Rain = 0
KCR1 121541Z 26002KT 26/12 A3001 RMK A01 T02640122  RH  041%=      5-min Rain = 0
KCR1 121542Z 26003KT 27/12 A3001 RMK A01 T02660123  RH  041%=      5-min Rain = 0
KCR1 121543Z 24003KT 27/12 A3001 RMK A01 T02650121  RH  041%=      5-min Rain = 0
KCR1 121544Z 24002KT 26/12 A3001 RMK A01 T02630120  RH  041%=      5-min Rain = 0
KCR1 121545Z 23002KT 26/12 A3001 RMK A01 T02620121  RH  042%=      5-min Rain = 0
KCR1 121546Z 32002KT 26/12 A3002 RMK A01 T02620122  RH  042%=      5-min Rain = 0
KCR1 121547Z 27001KT 26/12 A3002 RMK A01 T02630121  RH  041%=      5-min Rain = 0
KCR1 121548Z 25003KT 27/12 A3002 RMK A01 T02650124  RH  042%=      5-min Rain = 0
KCR1 121549Z 28004KT 27/13 A3002 RMK A01 T02680125  RH  041%=      5-min Rain = 0
KCR1 121550Z 30002KT 27/12 A3002 RMK A01 T02680121  RH  040%=      5-min Rain = 0
KCR1 121551Z 30001KT 27/12 A3002 RMK A01 T02680120  RH  040%=      5-min Rain = 0
KCR1 121552Z 28001KT 27/12 A3002 RMK A01 T02660120  RH  040%=      5-min Rain = 0
KCR1 121553Z 04001KT 27/12 A3001 RMK A01 T02660120  RH  040%=      5-min Rain = 0
KCR1 121554Z 04001KT 27/12 A3001 RMK A01 T02660122  RH  041%=      5-min Rain = 0
KCR1 121555Z 17001KT 27/12 A3001 RMK A01 T02670122  RH  041%=      5-min Rain = 0
KCR1 121556Z 22003KT 27/13 A3001 RMK A01 T02700127  RH  041%=      5-min Rain = 0
KCR1 121557Z 19004KT 27/12 A3001 RMK A01 T02720124  RH  040%=      5-min Rain = 0
KCR1 121558Z 18003KT 27/12 A3001 RMK A01 T02720123  RH  040%=      5-min Rain = 0
KCR1 121559Z 16003KT 27/12 A3001 RMK A01 T02720122  RH  039%=      5-min Rain = 0
KCR1 121600Z 16003KT 27/13 A3001 RMK A01 T02710125  RH  040%=      5-min Rain = 0
KCR1 121601Z 14003KT 27/13 A3001 RMK A01 T02730125  RH  040%=      5-min Rain = 0
KCR1 121602Z 14002KT 28/13 A3001 RMK A01 T02750126  RH  040%=      5-min Rain = 0
KCR1 121603Z 18003KT 28/13 A3001 RMK A01 T02760126  RH  040%=      5-min Rain = 0
KCR1 121604Z 18004KT 28/12 A3001 RMK A01 T02770123  RH  038%=      5-min Rain = 0
KCR1 121605Z 16003KT 28/12 A3001 RMK A01 T02760123  RH  039%=      5-min Rain = 0
KCR1 121606Z 14003KT 27/12 A3001 RMK A01 T02740123  RH  039%=      5-min Rain = 0
KCR1 121607Z 12002KT 27/12 A3001 RMK A01 T02740124  RH  039%=      5-min Rain = 0
KCR1 121608Z 14001KT 27/12 A3001 RMK A01 T02740124  RH  039%=      5-min Rain = 0
KCR1 121609Z 14003KT 28/13 A3001 RMK A01 T02750126  RH  040%=      5-min Rain = 0
KCR1 121610Z 17003KT 28/12 A3001 RMK A01 T02760124  RH  039%=      5-min Rain = 0
KCR1 121611Z 14002KT 28/12 A3001 RMK A01 T02750123  RH  039%=      5-min Rain = 0
KCR1 121612Z 05002KT 27/13 A3001 RMK A01 T02740125  RH  040%=      5-min Rain = 0
KCR1 121613Z 03000KT 28/13 A3001 RMK A01 T02760125  RH  039%=      5-min Rain = 0
KCR1 121614Z 28002KT 28/12 A3001 RMK A01 T02770123  RH  038%=      5-min Rain = 0
KCR1 121615Z 27002KT 28/12 A3001 RMK A01 T02770122  RH  038%=      5-min Rain = 0
KCR1 121616Z 27002KT 28/12 A3001 RMK A01 T02790123  RH  038%=      5-min Rain = 0
KCR1 121617Z 28002KT 28/12 A3001 RMK A01 T02780120  RH  037%=      5-min Rain = 0
KCR1 121618Z 29002KT 28/12 A3001 RMK A01 T02770120  RH  038%=      5-min Rain = 0
KCR1 121619Z 31000KT 28/12 A3001 RMK A01 T02770120  RH  038%=      5-min Rain = 0
KCR1 121620Z 31002KT 28/12 A3001 RMK A01 T02780123  RH  038%=      5-min Rain = 0
KCR1 121621Z 33003KT 28/12 A3001 RMK A01 T02800124  RH  038%=      5-min Rain = 0
KCR1 121622Z 33003KT 28/12 A3001 RMK A01 T02800121  RH  037%=      5-min Rain = 0
KCR1 121623Z 32003KT 28/12 A3001 RMK A01 T02800121  RH  038%=      5-min Rain = 0
KCR1 121624Z 31002KT 28/12 A3001 RMK A01 T02770120  RH  038%=      5-min Rain = 0
KCR1 121625Z 34001KT 28/12 A3001 RMK A01 T02750122  RH  039%=      5-min Rain = 0
KCR1 121626Z 03001KT 28/12 A3001 RMK A01 T02760123  RH  039%=      5-min Rain = 0
KCR1 121627Z 35002KT 28/12 A3001 RMK A01 T02790122  RH  038%=      5-min Rain = 0
KCR1 121628Z 35001KT 28/12 A3001 RMK A01 T02790118  RH  037%=      5-min Rain = 0
KCR1 121629Z 33002KT 28/12 A3001 RMK A01 T02790118  RH  037%=      5-min Rain = 0
KCR1 121630Z 31003KT 28/12 A3001 RMK A01 T02800121  RH  037%=      5-min Rain = 0
KCR1 121631Z 31002KT 28/12 A3001 RMK A01 T02810122  RH  037%=      5-min Rain = 0
KCR1 121632Z 34003KT 28/12 A3001 RMK A01 T02810121  RH  037%=      5-min Rain = 0
KCR1 121633Z 32003KT 28/12 A3001 RMK A01 T02810121  RH  037%=      5-min Rain = 0
KCR1 121634Z 33002KT 28/12 A3001 RMK A01 T02800122  RH  038%=      5-min Rain = 0
KCR1 121635Z 34001KT 28/12 A3001 RMK A01 T02790121  RH  037%=      5-min Rain = 0
KCR1 121636Z 33001KT 28/12 A3001 RMK A01 T02780119  RH  037%=      5-min Rain = 0
KCR1 121637Z 01001KT 28/12 A3001 RMK A01 T02780118  RH  037%=      5-min Rain = 0
KCR1 121638Z 06000KT 28/13 A3001 RMK A01 T02790125  RH  039%=      5-min Rain = 0
KCR1 121639Z 35000KT 28/13 A3001 RMK A01 T02830125  RH  038%=      5-min Rain = 0
KCR1 121640Z 29002KT 29/12 A3001 RMK A01 T02870119  RH  035%=      5-min Rain = 0
KCR1 121641Z 29002KT 29/12 A3001 RMK A01 T02870118  RH  035%=      5-min Rain = 0
KCR1 121642Z 24001KT 29/12 A3001 RMK A01 T02850119  RH  036%=      5-min Rain = 0
KCR1 121643Z 18001KT 28/12 A3001 RMK A01 T02830122  RH  037%=      5-min Rain = 0
KCR1 121644Z 21002KT 28/12 A3001 RMK A01 T02830120  RH  036%=      5-min Rain = 0
KCR1 121645Z 23003KT 28/12 A30 RMK A01 T02830120  RH  036%=      5-min Rain = 0
KCR1 121646Z 20003KT 28/12 A30 RMK A01 T02820119  RH  036%=      5-min Rain = 0
KCR1 121647Z 18002KT 28/12 A30 RMK A01 T02810118  RH  036%=      5-min Rain = 0
KCR1 121648Z 15002KT 28/12 A30 RMK A01 T02800119  RH  037%=      5-min Rain = 0
KCR1 121649Z 16001KT 28/12 A30 RMK A01 T02800118  RH  037%=      5-min Rain = 0
KCR1 121650Z 18002KT 28/12 A30 RMK A01 T02800118  RH  036%=      5-min Rain = 0
KCR1 121651Z 20003KT 28/12 A30 RMK A01 T02810117  RH  036%=      5-min Rain = 0
KCR1 121652Z 20003KT 28/12 A30 RMK A01 T02800117  RH  036%=      5-min Rain = 0
KCR1 121653Z 21004KT 28/12 A30 RMK A01 T02800121  RH  037%=      5-min Rain = 0
KCR1 121654Z 22003KT 28/12 A30 RMK A01 T02830119  RH  036%=      5-min Rain = 0
KCR1 121655Z 25002KT 28/12 A30 RMK A01 T02830119  RH  036%=      5-min Rain = 0
KCR1 121656Z 29003KT 28/12 A30 RMK A01 T02840119  RH  036%=      5-min Rain = 0
KCR1 121657Z 30002KT 29/12 A30 RMK A01 T02860116  RH  035%=      5-min Rain = 0
KCR1 121658Z 29002KT 29/12 A30 RMK A01 T02850115  RH  035%=      5-min Rain = 0
KCR1 121659Z 26001KT 29/12 A30 RMK A01 T02850115  RH  035%=      5-min Rain = 0
KCR1 121700Z 22002KT 29/11 A30 RMK A01 T02860114  RH  034%=      5-min Rain = 0
KCR1 121701Z 25003KT 29/12 A30 RMK A01 T02870115  RH  035%=      5-min Rain = 0
KCR1 121702Z 24003KT 29/12 A30 RMK A01 T02870115  RH  034%=      5-min Rain = 0
KCR1 121703Z 22004KT 29/11 A30 RMK A01 T02860114  RH  034%=      5-min Rain = 0
KCR1 121704Z 20003KT 29/12 A30 RMK A01 T02860115  RH  035%=      5-min Rain = 0
KCR1 121705Z 19002KT 29/12 A30 RMK A01 T02860116  RH  035%=      5-min Rain = 0
KCR1 121706Z 17003KT 29/12 A30 RMK A01 T02860118  RH  035%=      5-min Rain = 0
KCR1 121707Z 15004KT 29/12 A30 RMK A01 T02860115  RH  035%=      5-min Rain = 0
KCR1 121708Z 14003KT 29/12 A30 RMK A01 T02850116  RH  035%=      5-min Rain = 0
KCR1 121709Z 12001KT 29/12 A30 RMK A01 T02860118  RH  035%=      5-min Rain = 0
KCR1 121710Z 10001KT 29/12 A2999 RMK A01 T02860117  RH  035%=      5-min Rain = 0
KCR1 121711Z 12001KT 29/12 A2999 RMK A01 T02870118  RH  035%=      5-min Rain = 0
KCR1 121712Z 36001KT 29/12 A2999 RMK A01 T02880119  RH  035%=      5-min Rain = 0
KCR1 121713Z 31002KT 29/12 A2999 RMK A01 T02900117  RH  034%=      5-min Rain = 0
KCR1 121714Z 30002KT 29/12 A2999 RMK A01 T02910117  RH  034%=      5-min Rain = 0
KCR1 121715Z 34002KT 29/12 A2999 RMK A01 T02930118  RH  034%=      5-min Rain = 0
KCR1 121716Z 34002KT 29/12 A2999 RMK A01 T02940119  RH  034%=      5-min Rain = 0
KCR1 121717Z 36002KT 30/12 A2999 RMK A01 T02950118  RH  034%=      5-min Rain = 0
KCR1 121718Z 01003KT 30/12 A2999 RMK A01 T02960118  RH  033%=      5-min Rain = 0
KCR1 121719Z 35002KT 30/12 A2999 RMK A01 T02950120  RH  034%=      5-min Rain = 0
KCR1 121720Z 31005KT 30/12 A2999 RMK A01 T02950118  RH  034%=      5-min Rain = 0
KCR1 121721Z 32005KT 30/12 A2999 RMK A01 T02950117  RH  033%=      5-min Rain = 0
KCR1 121722Z 31005KT 29/12 A2999 RMK A01 T02930117  RH  034%=      5-min Rain = 0
KCR1 121723Z 33005KT 29/12 A2999 RMK A01 T02930117  RH  034%=      5-min Rain = 0
KCR1 121724Z 33004KT 29/12 A2999 RMK A01 T02930116  RH  033%=      5-min Rain = 0
KCR1 121725Z 31005KT 29/12 A2999 RMK A01 T02920117  RH  034%=      5-min Rain = 0
KCR1 121726Z 28003KT 29/12 A2999 RMK A01 T02910116  RH  034%=      5-min Rain = 0
KCR1 121727Z 24003KT 29/12 A2999 RMK A01 T02910116  RH  034%=      5-min Rain = 0
KCR1 121728Z 27005KT 29/12 A2999 RMK A01 T02910117  RH  034%=      5-min Rain = 0
KCR1 121729Z 26003KT 29/12 A2999 RMK A01 T02910116  RH  034%=      5-min Rain = 0
KCR1 121730Z 03002KT 29/12 A2999 RMK A01 T02920117  RH  034%=      5-min Rain = 0
KCR1 121731Z 03004KT 29/12 A2999 RMK A01 T02920120  RH  035%=      5-min Rain = 0
KCR1 121732Z 03005KT 29/12 A2999 RMK A01 T02940120  RH  034%=      5-min Rain = 0
KCR1 121733Z 04004KT 29/12 A2999 RMK A01 T02940119  RH  034%=      5-min Rain = 0
KCR1 121734Z 06003KT 29/12 A2999 RMK A01 T02940122  RH  035%=      5-min Rain = 0
KCR1 121735Z 08001KT 29/12 A2999 RMK A01 T02940120  RH  034%=      5-min Rain = 0
KCR1 121736Z 05003KT 30/12 A2998 RMK A01 T02950120  RH  034%=      5-min Rain = 0
KCR1 121737Z 05003KT 30/12 A2998 RMK A01 T02960119  RH  034%=      5-min Rain = 0
KCR1 121738Z 05003KT 29/12 A2998 RMK A01 T02940118  RH  034%=      5-min Rain = 0
KCR1 121739Z 08003KT 29/12 A2998 RMK A01 T02930118  RH  034%=      5-min Rain = 0
KCR1 121740Z 10002KT 29/12 A2998 RMK A01 T02920119  RH  034%=      5-min Rain = 0
KCR1 121741Z 17000KT 29/12 A2998 RMK A01 T02920117  RH  034%=      5-min Rain = 0
KCR1 121742Z 25001KT 29/12 A2998 RMK A01 T02920115  RH  034%=      5-min Rain = 0
KCR1 121743Z 27001KT 29/12 A2998 RMK A01 T02910116  RH  034%=      5-min Rain = 0
KCR1 121744Z 27000KT 29/12 A2998 RMK A01 T02920116  RH  034%=      5-min Rain = 0
KCR1 121745Z 35003KT 29/12 A2998 RMK A01 T02940119  RH  034%=      5-min Rain = 0
KCR1 121746Z 02005KT 30/12 A2998 RMK A01 T02970120  RH  034%=      5-min Rain = 0
KCR1 121747Z 01002KT 30/12 A2998 RMK A01 T02980121  RH  034%=      5-min Rain = 0
KCR1 121748Z 03002KT 30/12 A2998 RMK A01 T02980120  RH  033%=      5-min Rain = 0
KCR1 121749Z 07002KT 30/12 A2998 RMK A01 T02970120  RH  034%=      5-min Rain = 0
KCR1 121750Z 05002KT 30/12 A2998 RMK A01 T02980121  RH  034%=      5-min Rain = 0
KCR1 121751Z 35003KT 30/12 A2998 RMK A01 T02980120  RH  033%=      5-min Rain = 0
KCR1 121752Z 31004KT 30/12 A2998 RMK A01 T03000120  RH  033%=      5-min Rain = 0
KCR1 121753Z 31003KT 30/12 A2998 RMK A01 T03010118  RH  033%=      5-min Rain = 0
KCR1 121754Z 34001KT 30/12 A2998 RMK A01 T03010118  RH  032%=      5-min Rain = 0
KCR1 121755Z 30002KT 30/12 A2998 RMK A01 T03020120  RH  033%=      5-min Rain = 0
KCR1 121756Z 31001KT 30/12 A2998 RMK A01 T03030117  RH  032%=      5-min Rain = 0
KCR1 121757Z 23001KT 30/12 A2998 RMK A01 T03020119  RH  032%=      5-min Rain = 0
KCR1 121758Z 20002KT 30/12 A2997 RMK A01 T03010116  RH  032%=      5-min Rain = 0
KCR1 121759Z 20002KT 30/12 A2997 RMK A01 T02990117  RH  033%=      5-min Rain = 0
KCR1 121800Z 18003KT 30/12 A2997 RMK A01 T02980119  RH  033%=      5-min Rain = 0
KCR1 121801Z 13002KT 30/13 A2997 RMK A01 T02990125  RH  034%=      5-min Rain = 0
KCR1 121802Z 06004KT 30/12 A2997 RMK A01 T03020121  RH  033%=      5-min Rain = 0
KCR1 121803Z 06004KT 30/12 A2997 RMK A01 T03010123  RH  033%=      5-min Rain = 0
KCR1 121804Z 05003KT 30/12 A2997 RMK A01 T03010122  RH  033%=      5-min Rain = 0
KCR1 121805Z 06004KT 30/12 A2997 RMK A01 T03010122  RH  033%=      5-min Rain = 0
KCR1 121806Z 09004KT 30/12 A2997 RMK A01 T03010121  RH  033%=      5-min Rain = 0
KCR1 121807Z 11004KT 30/12 A2997 RMK A01 T03010118  RH  032%=      5-min Rain = 0
KCR1 121808Z 12004KT 30/12 A2997 RMK A01 T03000119  RH  033%=      5-min Rain = 0
KCR1 121809Z 14005KT 30/12 A2997 RMK A01 T03000122  RH  033%=      5-min Rain = 0
KCR1 121810Z 11003KT 30/12 A2997 RMK A01 T03020121  RH  033%=      5-min Rain = 0
KCR1 121811Z 04004KT 30/12 A2997 RMK A01 T03020122  RH  033%=      5-min Rain = 0
KCR1 121812Z 01006KT 30/12 A2997 RMK A01 T03040124  RH  033%=      5-min Rain = 0
KCR1 121813Z 00006KT 31/12 A2997 RMK A01 T03060121  RH  032%=      5-min Rain = 0
KCR1 121814Z 03003KT 31/12 A2997 RMK A01 T03060122  RH  032%=      5-min Rain = 0
KCR1 121815Z 04005KT 31/13 A2997 RMK A01 T03070126  RH  033%=      5-min Rain = 0
KCR1 121816Z 07006KT 31/13 A2996 RMK A01 T03080126  RH  033%=      5-min Rain = 0
KCR1 121817Z 07006KT 31/13 A2996 RMK A01 T03090125  RH  032%=      5-min Rain = 0
KCR1 121818Z 04008KT 31/13 A2996 RMK A01 T03100126  RH  032%=      5-min Rain = 0
KCR1 121819Z 03008KT 31/12 A2996 RMK A01 T03080123  RH  032%=      5-min Rain = 0
KCR1 121820Z 04008KT 31/12 A2996 RMK A01 T03070123  RH  032%=      5-min Rain = 0
KCR1 121821Z 03007KT 31/12 A2996 RMK A01 T03060122  RH  032%=      5-min Rain = 0
KCR1 121822Z 02004KT 31/12 A2996 RMK A01 T03050124  RH  033%=      5-min Rain = 0
KCR1 121823Z 03006KT 31/12 A2996 RMK A01 T03070122  RH  032%=      5-min Rain = 0
KCR1 121824Z 03003KT 31/12 A2996 RMK A01 T03070123  RH  033%=      5-min Rain = 0
KCR1 121825Z 05004KT 31/13 A2996 RMK A01 T03070127  RH  033%=      5-min Rain = 0
KCR1 121826Z 03005KT 31/13 A2996 RMK A01 T03100125  RH  032%=      5-min Rain = 0
KCR1 121827Z 05005KT 31/12 A2996 RMK A01 T03100122  RH  032%=      5-min Rain = 0
KCR1 121828Z 07004KT 31/12 A2996 RMK A01 T03070122  RH  032%=      5-min Rain = 0
KCR1 121829Z 10003KT 30/12 A2996 RMK A01 T03040121  RH  032%=      5-min Rain = 0
KCR1 121830Z 07002KT 30/12 A2996 RMK A01 T03040123  RH  033%=      5-min Rain = 0
KCR1 121831Z 10001KT 30/12 A2996 RMK A01 T03040119  RH  032%=      5-min Rain = 0
KCR1 121832Z 35002KT 30/12 A2996 RMK A01 T03040121  RH  032%=      5-min Rain = 0
KCR1 121833Z 04003KT 31/12 A2996 RMK A01 T03050121  RH  032%=      5-min Rain = 0
KCR1 121834Z 04003KT 31/12 A2996 RMK A01 T03060122  RH  032%=      5-min Rain = 0
KCR1 121835Z 01003KT 31/12 A2996 RMK A01 T03070122  RH  032%=      5-min Rain = 0
KCR1 121836Z 04006KT 31/12 A2996 RMK A01 T03090123  RH  032%=      5-min Rain = 0
KCR1 121837Z 07006KT 31/12 A2996 RMK A01 T03110122  RH  031%=      5-min Rain = 0
KCR1 121838Z 10006KT 31/12 A2996 RMK A01 T03110122  RH  031%=      5-min Rain = 0
KCR1 121839Z 11006KT 31/12 A2995 RMK A01 T03110120  RH  031%=      5-min Rain = 0
KCR1 121840Z 08005KT 31/12 A2996 RMK A01 T03090120  RH  031%=      5-min Rain = 0
KCR1 121841Z 05005KT 31/12 A2996 RMK A01 T03070119  RH  031%=      5-min Rain = 0
KCR1 121842Z 01008KT 31/12 A2995 RMK A01 T03070121  RH  032%=      5-min Rain = 0
KCR1 121843Z 01008KT 31/12 A2995 RMK A01 T03080118  RH  031%=      5-min Rain = 0
KCR1 121844Z 03005KT 31/12 A2996 RMK A01 T03080122  RH  032%=      5-min Rain = 0
KCR1 121845Z 06004KT 31/12 A2995 RMK A01 T03090120  RH  031%=      5-min Rain = 0
KCR1 121846Z 06003KT 31/12 A2995 RMK A01 T03080121  RH  032%=      5-min Rain = 0
KCR1 121847Z 06001KT 31/12 A2995 RMK A01 T03080120  RH  032%=      5-min Rain = 0
KCR1 121848Z 16001KT 31/12 A2995 RMK A01 T03080117  RH  031%=      5-min Rain = 0
KCR1 121849Z 20002KT 31/12 A2995 RMK A01 T03100122  RH  032%=      5-min Rain = 0
KCR1 121850Z 21002KT 31/12 A2995 RMK A01 T03140120  RH  031%=      5-min Rain = 0
KCR1 121851Z 13002KT 32/12 A2995 RMK A01 T03190121  RH  030%=      5-min Rain = 0
KCR1 121852Z 05004KT 32/12 A2995 RMK A01 T03210121  RH  029%=      5-min Rain = 0
KCR1 121853Z 07003KT 32/12 A2995 RMK A01 T03170118  RH  030%=      5-min Rain = 0
KCR1 121854Z 05004KT 31/12 A2995 RMK A01 T03140121  RH  031%=      5-min Rain = 0
KCR1 121855Z 02008KT 32/12 A2995 RMK A01 T03150122  RH  031%=      5-min Rain = 0
KCR1 121856Z 03008KT 32/12 A2995 RMK A01 T03170119  RH  030%=      5-min Rain = 0
KCR1 121857Z 05008KT 32/12 A2995 RMK A01 T03160117  RH  030%=      5-min Rain = 0
KCR1 121858Z 06007KT 31/12 A2995 RMK A01 T03140117  RH  030%=      5-min Rain = 0
KCR1 121859Z 06006KT 31/12 A2995 RMK A01 T03130122  RH  031%=      5-min Rain = 0
KCR1 121900Z 07006KT 31/12 A2995 RMK A01 T03140120  RH  031%=      5-min Rain = 0
KCR1 121901Z 05005G11KT 31/12 A2994 RMK A01 T03130117  RH  030%=      5-min Rain = 0
KCR1 121902Z 08002KT 31/12 A2994 RMK A01 T03120121  RH  031%=      5-min Rain = 0
KCR1 121903Z 03005KT 31/12 A2994 RMK A01 T03140122  RH  031%=      5-min Rain = 0
KCR1 121904Z 03004KT 32/12 A2994 RMK A01 T03160120  RH  030%=      5-min Rain = 0
KCR1 121905Z 03006KT 32/12 A2994 RMK A01 T03150119  RH  030%=      5-min Rain = 0
KCR1 121906Z 01009KT 32/12 A2994 RMK A01 T03150120  RH  030%=      5-min Rain = 0
KCR1 121907Z 00009KT 32/12 A2994 RMK A01 T03160116  RH  029%=      5-min Rain = 0
KCR1 121908Z 00009KT 32/11 A2994 RMK A01 T03170114  RH  029%=      5-min Rain = 0
KCR1 121909Z 35005KT 32/12 A2994 RMK A01 T03150115  RH  029%=      5-min Rain = 0
KCR1 121910Z 35004KT 32/12 A2994 RMK A01 T03150115  RH  029%=      5-min Rain = 0
KCR1 121911Z 33003KT 32/12 A2994 RMK A01 T03150115  RH  029%=      5-min Rain = 0
KCR1 121912Z 33002KT 32/12 A2994 RMK A01 T03160118  RH  030%=      5-min Rain = 0
KCR1 121913Z 04003KT 32/12 A2994 RMK A01 T03180119  RH  030%=      5-min Rain = 0
KCR1 121914Z 02004KT 32/12 A2994 RMK A01 T03200120  RH  029%=      5-min Rain = 0
KCR1 121915Z 00006KT 32/12 A2994 RMK A01 T03190118  RH  029%=      5-min Rain = 0
KCR1 121916Z 01005KT 32/12 A2994 RMK A01 T03180119  RH  030%=      5-min Rain = 0
KCR1 121917Z 35003KT 32/12 A2994 RMK A01 T03190115  RH  029%=      5-min Rain = 0
KCR1 121918Z 30004KT 32/12 A2993 RMK A01 T03200115  RH  029%=      5-min Rain = 0
KCR1 121919Z 31004KT 32/11 A2993 RMK A01 T03190114  RH  028%=      5-min Rain = 0
KCR1 121920Z 02008KT 32/12 A2993 RMK A01 T03170117  RH  029%=      5-min Rain = 0
KCR1 121921Z 02004KT 32/11 A2993 RMK A01 T03180112  RH  028%=      5-min Rain = 0
KCR1 121922Z 36004KT 32/11 A2993 RMK A01 T03160113  RH  029%=      5-min Rain = 0
KCR1 121923Z 01007KT 32/12 A2993 RMK A01 T03170115  RH  029%=      5-min Rain = 0
KCR1 121924Z 00006KT 32/11 A2993 RMK A01 T03190114  RH  029%=      5-min Rain = 0
KCR1 121925Z 00005KT 32/11 A2993 RMK A01 T03190114  RH  029%=      5-min Rain = 0
KCR1 121926Z 35005KT 32/12 A2993 RMK A01 T03180115  RH  029%=      5-min Rain = 0
KCR1 121927Z 35007KT 32/11 A2993 RMK A01 T03180113  RH  028%=      5-min Rain = 0
KCR1 121928Z 32006KT 32/11 A2993 RMK A01 T03180112  RH  028%=      5-min Rain = 0
KCR1 121929Z 30007KT 32/11 A2993 RMK A01 T03190111  RH  028%=      5-min Rain = 0
KCR1 121930Z 31004KT 32/11 A2993 RMK A01 T03170108  RH  028%=      5-min Rain = 0
KCR1 121931Z 02003KT 32/11 A2993 RMK A01 T03150112  RH  029%=      5-min Rain = 0
KCR1 121932Z 05005KT 32/11 A2993 RMK A01 T03150113  RH  029%=      5-min Rain = 0
KCR1 121933Z 07008KT 32/12 A2993 RMK A01 T03180117  RH  029%=      5-min Rain = 0
KCR1 121934Z 07008KT 32/12 A2993 RMK A01 T03200116  RH  029%=      5-min Rain = 0
KCR1 121935Z 10005KT 32/12 A2993 RMK A01 T03220116  RH  028%=      5-min Rain = 0
KCR1 121936Z 07005KT 32/11 A2992 RMK A01 T03200112  RH  028%=      5-min Rain = 0
KCR1 121937Z 07005G10KT 32/12 A2992 RMK A01 T03180117  RH  029%=      5-min Rain = 0
KCR1 121938Z 06011KT 32/12 A2992 RMK A01 T03190119  RH  029%=      5-min Rain = 0
KCR1 121939Z 06007KT 32/11 A2993 RMK A01 T03210114  RH  028%=      5-min Rain = 0
KCR1 121940Z 07003KT 32/11 A2993 RMK A01 T03170114  RH  029%=      5-min Rain = 0
KCR1 121941Z 14001KT 32/11 A2992 RMK A01 T03160111  RH  028%=      5-min Rain = 0
KCR1 121942Z 11003KT 32/11 A2992 RMK A01 T03150113  RH  029%=      5-min Rain = 0
KCR1 121943Z 07003KT 32/11 A2992 RMK A01 T03160114  RH  029%=      5-min Rain = 0
KCR1 121944Z 04005KT 32/12 A2992 RMK A01 T03160118  RH  030%=      5-min Rain = 0
KCR1 121945Z 05004KT 32/12 A2992 RMK A01 T03180118  RH  029%=      5-min Rain = 0
KCR1 121946Z 07003KT 32/12 A2992 RMK A01 T03190122  RH  030%=      5-min Rain = 0
KCR1 121947Z 06007KT 32/12 A2992 RMK A01 T03210119  RH  029%=      5-min Rain = 0
KCR1 121948Z 03003KT 32/12 A2992 RMK A01 T03210116  RH  029%=      5-min Rain = 0
KCR1 121949Z 06004KT 32/12 A2992 RMK A01 T03210118  RH  029%=      5-min Rain = 0
KCR1 121950Z 09006KT 32/12 A2992 RMK A01 T03210116  RH  029%=      5-min Rain = 0
KCR1 121951Z 10005KT 32/12 A2992 RMK A01 T03210115  RH  028%=      5-min Rain = 0
KCR1 121952Z 05006KT 32/12 A2992 RMK A01 T03200116  RH  029%=      5-min Rain = 0
KCR1 121953Z 03007KT 32/12 A2992 RMK A01 T03220120  RH  029%=      5-min Rain = 0
KCR1 121954Z 34003KT 33/12 A2992 RMK A01 T03250115  RH  028%=      5-min Rain = 0
KCR1 121955Z 32001KT 33/11 A2992 RMK A01 T03260112  RH  027%=      5-min Rain = 0
KCR1 121956Z 34000KT 33/11 A2991 RMK A01 T03250113  RH  027%=      5-min Rain = 0
KCR1 121957Z 09003KT 33/12 A2991 RMK A01 T03250116  RH  028%=      5-min Rain = 0
KCR1 121958Z 06004KT 33/12 A2991 RMK A01 T03250117  RH  028%=      5-min Rain = 0
KCR1 121959Z 07003KT 33/11 A2991 RMK A01 T03250111  RH  027%=      5-min Rain = 0
KCR1 122000Z 08001KT 32/12 A2991 RMK A01 T03230115  RH  028%=      5-min Rain = 0
KCR1 122001Z 06002KT 32/12 A2991 RMK A01 T03240119  RH  029%=      5-min Rain = 0
KCR1 122002Z 09005KT 33/12 A2991 RMK A01 T03270115  RH  027%=      5-min Rain = 0
KCR1 122003Z 04008KT 33/11 A2991 RMK A01 T03270113  RH  027%=      5-min Rain = 0
KCR1 122004Z 05009KT 33/11 A2991 RMK A01 T03270111  RH  027%=      5-min Rain = 0
KCR1 122005Z 05007KT 33/11 A2991 RMK A01 T03270105  RH  026%=      5-min Rain = 0
KCR1 122006Z 03002KT 32/10 A2991 RMK A01 T03220102  RH  026%=      5-min Rain = 0
KCR1 122007Z 06002KT 32/10 A2991 RMK A01 T03190104  RH  027%=      5-min Rain = 0
KCR1 122008Z 06004KT 32/11 A2991 RMK A01 T03210108  RH  027%=      5-min Rain = 0
KCR1 122009Z 04008KT 32/11 A2991 RMK A01 T03220105  RH  026%=      5-min Rain = 0
KCR1 122010Z 02009KT 32/11 A2991 RMK A01 T03230106  RH  027%=      5-min Rain = 0
KCR1 122011Z 03006KT 32/10 A2991 RMK A01 T03220104  RH  026%=      5-min Rain = 0
KCR1 122012Z 02008KT 32/10 A2991 RMK A01 T03210104  RH  026%=      5-min Rain = 0
KCR1 122013Z 03008KT 32/10 A2991 RMK A01 T03210104  RH  026%=      5-min Rain = 0
KCR1 122014Z 03008KT 32/11 A2991 RMK A01 T03220106  RH  026%=      5-min Rain = 0
KCR1 122015Z 03005KT 32/10 A2991 RMK A01 T03230103  RH  026%=      5-min Rain = 0
KCR1 122016Z 04009KT 32/11 A299 RMK A01 T03230105  RH  026%=      5-min Rain = 0
KCR1 122017Z 06007G12KT 32/10 A299 RMK A01 T03240104  RH  026%=      5-min Rain = 0
KCR1 122018Z 09004KT 32/10 A299 RMK A01 T03240101  RH  025%=      5-min Rain = 0
KCR1 122019Z 09006KT 32/10 A299 RMK A01 T03230103  RH  026%=      5-min Rain = 0
KCR1 122020Z 09006KT 32/10 A299 RMK A01 T03230102  RH  026%=      5-min Rain = 0
KCR1 122021Z 09005KT 32/10 A299 RMK A01 T03230101  RH  025%=      5-min Rain = 0
KCR1 122022Z 11005KT 32/10 A299 RMK A01 T03240100  RH  025%=      5-min Rain = 0
KCR1 122023Z 10004KT 32/10 A299 RMK A01 T03240101  RH  025%=      5-min Rain = 0
KCR1 122024Z 06003KT 32/10 A299 RMK A01 T03230100  RH  025%=      5-min Rain = 0
KCR1 122025Z 00008KT 32/10 A299 RMK A01 T03230102  RH  026%=      5-min Rain = 0
KCR1 122026Z 01008KT 32/10 A299 RMK A01 T03230099  RH  025%=      5-min Rain = 0
KCR1 122027Z 03006KT 32/10 A299 RMK A01 T03230098  RH  025%=      5-min Rain = 0
KCR1 122028Z 04005KT 32/10 A299 RMK A01 T03200099  RH  026%=      5-min Rain = 0
KCR1 122029Z 01005KT 32/10 A299 RMK A01 T03200101  RH  026%=      5-min Rain = 0
KCR1 122030Z 35004KT 32/10 A299 RMK A01 T03230099  RH  025%=      5-min Rain = 0
KCR1 122031Z 33004KT 33/10 A299 RMK A01 T03250099  RH  025%=      5-min Rain = 0
KCR1 122032Z 35004KT 33/10 A299 RMK A01 T03260101  RH  025%=      5-min Rain = 0
KCR1 122033Z 36002KT 33/10 A299 RMK A01 T03270100  RH  025%=      5-min Rain = 0
KCR1 122034Z 10002KT 33/10 A299 RMK A01 T03280100  RH  025%=      5-min Rain = 0
KCR1 122035Z 10005KT 33/10 A2989 RMK A01 T03260102  RH  025%=      5-min Rain = 0
KCR1 122036Z 10003KT 32/10 A2989 RMK A01 T03240104  RH  026%=      5-min Rain = 0
KCR1 122037Z 09005KT 32/11 A2989 RMK A01 T03230107  RH  027%=      5-min Rain = 0
KCR1 122038Z 08008KT 33/11 A2989 RMK A01 T03250108  RH  026%=      5-min Rain = 0
KCR1 122039Z 09007KT 33/11 A2989 RMK A01 T03250105  RH  026%=      5-min Rain = 0
KCR1 122040Z 05008KT 32/10 A2989 RMK A01 T03220102  RH  026%=      5-min Rain = 0
KCR1 122041Z 05009KT 32/10 A2989 RMK A01 T03190100  RH  026%=      5-min Rain = 0
KCR1 122042Z 04006KT 32/10 A2989 RMK A01 T03180102  RH  026%=      5-min Rain = 0
KCR1 122043Z 02009KT 32/10 A2989 RMK A01 T03190102  RH  026%=      5-min Rain = 0
KCR1 122044Z 00008KT 32/10 A2989 RMK A01 T03210100  RH  026%=      5-min Rain = 0
KCR1 122045Z 02007KT 32/10 A2989 RMK A01 T03220101  RH  026%=      5-min Rain = 0
KCR1 122046Z 01007KT 32/10 A2989 RMK A01 T03220103  RH  026%=      5-min Rain = 0
KCR1 122047Z 02009KT 32/11 A2989 RMK A01 T03230105  RH  026%=      5-min Rain = 0
KCR1 122048Z 03007KT 33/10 A2989 RMK A01 T03270103  RH  025%=      5-min Rain = 0
KCR1 122049Z 06005KT 33/11 A2989 RMK A01 T03280108  RH  026%=      5-min Rain = 0
KCR1 122050Z 07005KT 33/11 A2989 RMK A01 T03280107  RH  026%=      5-min Rain = 0
KCR1 122051Z 09003KT 33/11 A2989 RMK A01 T03260108  RH  026%=      5-min Rain = 0
KCR1 122052Z 06002KT 33/11 A2989 RMK A01 T03250105  RH  026%=      5-min Rain = 0
KCR1 122053Z 09004KT 33/11 A2989 RMK A01 T03250108  RH  026%=      5-min Rain = 0
KCR1 122054Z 08008KT 33/11 A2989 RMK A01 T03260109  RH  026%=      5-min Rain = 0
KCR1 122055Z 07007KT 33/11 A2989 RMK A01 T03270108  RH  026%=      5-min Rain = 0
KCR1 122056Z 07006KT 33/11 A2989 RMK A01 T03280110  RH  026%=      5-min Rain = 0
KCR1 122057Z 07003KT 33/11 A2989 RMK A01 T03270105  RH  026%=      5-min Rain = 0
KCR1 122058Z 07004KT 33/11 A2989 RMK A01 T03260111  RH  027%=      5-min Rain = 0
KCR1 122059Z 09008KT 33/11 A2989 RMK A01 T03280109  RH  026%=      5-min Rain = 0
KCR1 122100Z 08009KT 33/11 A2989 RMK A01 T03290107  RH  026%=      5-min Rain = 0
KCR1 122101Z 07008KT 33/10 A2989 RMK A01 T03270104  RH  025%=      5-min Rain = 0
KCR1 122102Z 04008G14KT 32/11 A2989 RMK A01 T03230105  RH  026%=      5-min Rain = 0
KCR1 122103Z 02007KT 32/10 A2989 RMK A01 T03230103  RH  026%=      5-min Rain = 0
KCR1 122104Z 02008KT 32/11 A2989 RMK A01 T03240105  RH  026%=      5-min Rain = 0
KCR1 122105Z 02006KT 33/11 A2989 RMK A01 T03270106  RH  026%=      5-min Rain = 0
KCR1 122106Z 03004KT 33/10 A2988 RMK A01 T03280103  RH  025%=      5-min Rain = 0
KCR1 122107Z 02003KT 33/10 A2988 RMK A01 T03250103  RH  026%=      5-min Rain = 0
KCR1 122108Z 06003KT 32/10 A2988 RMK A01 T03240104  RH  026%=      5-min Rain = 0
KCR1 122109Z 06004KT 33/11 A2988 RMK A01 T03250109  RH  027%=      5-min Rain = 0
KCR1 122110Z 07007KT 33/11 A2988 RMK A01 T03280106  RH  026%=      5-min Rain = 0
KCR1 122111Z 05006KT 33/11 A2988 RMK A01 T03280108  RH  026%=      5-min Rain = 0
KCR1 122112Z 05005KT 33/11 A2988 RMK A01 T03270105  RH  026%=      5-min Rain = 0
KCR1 122113Z 06010KT 33/11 A2988 RMK A01 T03270106  RH  026%=      5-min Rain = 0
KCR1 122114Z 06008KT 33/11 A2988 RMK A01 T03260105  RH  026%=      5-min Rain = 0
KCR1 122115Z 06006KT 32/10 A2988 RMK A01 T03240103  RH  026%=      5-min Rain = 0
KCR1 122116Z 06007KT 32/11 A2988 RMK A01 T03240106  RH  026%=      5-min Rain = 0
KCR1 122117Z 08006KT 32/11 A2988 RMK A01 T03240108  RH  027%=      5-min Rain = 0
KCR1 122118Z 05005KT 33/11 A2988 RMK A01 T03260108  RH  026%=      5-min Rain = 0
KCR1 122119Z 05006KT 33/11 A2988 RMK A01 T03270105  RH  026%=      5-min Rain = 0
KCR1 122120Z 03006KT 33/11 A2988 RMK A01 T03270105  RH  026%=      5-min Rain = 0
KCR1 122121Z 03003KT 33/11 A2988 RMK A01 T03260107  RH  026%=      5-min Rain = 0
KCR1 122122Z 05002KT 33/10 A2988 RMK A01 T03270104  RH  026%=      5-min Rain = 0
KCR1 122123Z 10005KT 33/10 A2988 RMK A01 T03260104  RH  026%=      5-min Rain = 0
KCR1 122124Z 11004KT 32/10 A2988 RMK A01 T03240101  RH  025%=      5-min Rain = 0
KCR1 122125Z 14003KT 32/10 A2988 RMK A01 T03230103  RH  026%=      5-min Rain = 0
KCR1 122126Z 15003KT 32/10 A2988 RMK A01 T03240102  RH  026%=      5-min Rain = 0
KCR1 122127Z 11004KT 33/10 A2988 RMK A01 T03250103  RH  026%=      5-min Rain = 0
KCR1 122128Z 09007KT 33/10 A2988 RMK A01 T03250103  RH  025%=      5-min Rain = 0
KCR1 122129Z 10007KT 33/10 A2988 RMK A01 T03260104  RH  026%=      5-min Rain = 0
KCR1 122130Z 09006KT 33/10 A2988 RMK A01 T03260104  RH  026%=      5-min Rain = 0
KCR1 122131Z 09006KT 33/10 A2988 RMK A01 T03250103  RH  026%=      5-min Rain = 0
KCR1 122132Z 09005KT 32/10 A2988 RMK A01 T03240102  RH  026%=      5-min Rain = 0
KCR1 122133Z 04007KT 32/10 A2988 RMK A01 T03240102  RH  026%=      5-min Rain = 0
KCR1 122134Z 03008KT 32/11 A2988 RMK A01 T03240107  RH  026%=      5-min Rain = 0
KCR1 122135Z 02005KT 33/11 A2988 RMK A01 T03280107  RH  026%=      5-min Rain = 0
KCR1 122136Z 03003KT 33/11 A2988 RMK A01 T03290105  RH  025%=      5-min Rain = 0
KCR1 122137Z 04002KT 33/10 A2988 RMK A01 T03280101  RH  025%=      5-min Rain = 0
KCR1 122138Z 00002KT 33/10 A2988 RMK A01 T03260101  RH  025%=      5-min Rain = 0
KCR1 122139Z 35001KT 33/10 A2988 RMK A01 T03260100  RH  025%=      5-min Rain = 0
KCR1 122140Z 36002KT 33/10 A2987 RMK A01 T03260100  RH  025%=      5-min Rain = 0
KCR1 122141Z 04005KT 33/11 A2988 RMK A01 T03280106  RH  026%=      5-min Rain = 0
KCR1 122142Z 05004KT 33/11 A2987 RMK A01 T03300105  RH  025%=      5-min Rain = 0
KCR1 122143Z 06002KT 33/10 A2987 RMK A01 T03280101  RH  025%=      5-min Rain = 0
KCR1 122144Z 03001KT 33/10 A2987 RMK A01 T03250100  RH  025%=      5-min Rain = 0
KCR1 122145Z 08003KT 33/11 A2987 RMK A01 T03250106  RH  026%=      5-min Rain = 0
KCR1 122146Z 08006KT 33/11 A2987 RMK A01 T03260106  RH  026%=      5-min Rain = 0
KCR1 122147Z 07007KT 33/11 A2987 RMK A01 T03280107  RH  026%=      5-min Rain = 0
KCR1 122148Z 10006KT 33/10 A2987 RMK A01 T03280103  RH  025%=      5-min Rain = 0
KCR1 122149Z 09007KT 33/10 A2987 RMK A01 T03250104  RH  026%=      5-min Rain = 0
KCR1 122150Z 09007KT 32/11 A2987 RMK A01 T03240107  RH  026%=      5-min Rain = 0
KCR1 122151Z 09006KT 33/11 A2987 RMK A01 T03260105  RH  026%=      5-min Rain = 0
KCR1 122152Z 10006KT 33/11 A2987 RMK A01 T03260108  RH  026%=      5-min Rain = 0
KCR1 122153Z 10008KT 33/10 A2987 RMK A01 T03270103  RH  025%=      5-min Rain = 0
KCR1 122154Z 11006KT 33/10 A2987 RMK A01 T03270104  RH  026%=      5-min Rain = 0
KCR1 122155Z 10006KT 33/11 A2987 RMK A01 T03260105  RH  026%=      5-min Rain = 0
KCR1 122156Z 07004KT 33/10 A2987 RMK A01 T03260101  RH  025%=      5-min Rain = 0
KCR1 122157Z 08004KT 32/10 A2987 RMK A01 T03240101  RH  025%=      5-min Rain = 0
KCR1 122158Z 10004KT 32/10 A2987 RMK A01 T03240104  RH  026%=      5-min Rain = 0
KCR1 122159Z 13007KT 33/11 A2987 RMK A01 T03260107  RH  026%=      5-min Rain = 0
KCR1 122200Z 02010KT 33/11 A2987 RMK A01 T03280107  RH  026%=      5-min Rain = 0
KCR1 122201Z 02009KT 33/10 A2987 RMK A01 T03280104  RH  025%=      5-min Rain = 0
KCR1 122202Z 01006KT 33/10 A2987 RMK A01 T03250103  RH  026%=      5-min Rain = 0
KCR1 122203Z 36004KT 32/10 A2987 RMK A01 T03240102  RH  026%=      5-min Rain = 0
KCR1 122204Z 02003KT 32/10 A2987 RMK A01 T03240104  RH  026%=      5-min Rain = 0
KCR1 122205Z 05003KT 32/11 A2987 RMK A01 T03240105  RH  026%=      5-min Rain = 0
KCR1 122206Z 03004KT 33/11 A2987 RMK A01 T03250109  RH  026%=      5-min Rain = 0
KCR1 122207Z 07005KT 33/11 A2987 RMK A01 T03280109  RH  026%=      5-min Rain = 0
KCR1 122208Z 03006KT 33/11 A2987 RMK A01 T03290109  RH  026%=      5-min Rain = 0
KCR1 122209Z 03007KT 33/11 A2987 RMK A01 T03290110  RH  026%=      5-min Rain = 0
KCR1 122210Z 04008KT 33/11 A2987 RMK A01 T03290112  RH  026%=      5-min Rain = 0
KCR1 122211Z 04009KT 33/11 A2987 RMK A01 T03280109  RH  026%=      5-min Rain = 0
KCR1 122212Z 03009KT 33/11 A2987 RMK A01 T03260109  RH  026%=      5-min Rain = 0
KCR1 122213Z 03007KT 33/11 A2987 RMK A01 T03250109  RH  027%=      5-min Rain = 0
KCR1 122214Z 04008KT 33/11 A2987 RMK A01 T03260113  RH  027%=      5-min Rain = 0
KCR1 122215Z 04009KT 33/11 A2987 RMK A01 T03270109  RH  026%=      5-min Rain = 0
KCR1 122216Z 04007KT 33/11 A2987 RMK A01 T03250107  RH  026%=      5-min Rain = 0
KCR1 122217Z 04008KT 32/11 A2987 RMK A01 T03230106  RH  026%=      5-min Rain = 0
KCR1 122218Z 05003KT 32/11 A2987 RMK A01 T03220105  RH  026%=      5-min Rain = 0
KCR1 122219Z 07007KT 32/11 A2987 RMK A01 T03210107  RH  027%=      5-min Rain = 0
KCR1 122220Z 07008KT 32/11 A2987 RMK A01 T03230107  RH  027%=      5-min Rain = 0
KCR1 122221Z 07010KT 32/11 A2986 RMK A01 T03230106  RH  026%=      5-min Rain = 0
KCR1 122222Z 08011KT 32/11 A2986 RMK A01 T03230105  RH  026%=      5-min Rain = 0
KCR1 122223Z 08010KT 32/11 A2986 RMK A01 T03220107  RH  027%=      5-min Rain = 0
KCR1 122224Z 08007KT 32/11 A2987 RMK A01 T03220109  RH  027%=      5-min Rain = 0
KCR1 122225Z 08008KT 32/11 A2987 RMK A01 T03240109  RH  027%=      5-min Rain = 0
KCR1 122226Z 08006KT 32/11 A2987 RMK A01 T03240105  RH  026%=      5-min Rain = 0
KCR1 122227Z 09007KT 32/11 A2987 RMK A01 T03230107  RH  027%=      5-min Rain = 0
KCR1 122228Z 10006KT 32/11 A2987 RMK A01 T03220106  RH  026%=      5-min Rain = 0
KCR1 122229Z 12004KT 32/11 A2986 RMK A01 T03220107  RH  027%=      5-min Rain = 0
KCR1 122230Z 12005KT 32/11 A2986 RMK A01 T03220106  RH  027%=      5-min Rain = 0
KCR1 122231Z 11003KT 32/11 A2986 RMK A01 T03210105  RH  027%=      5-min Rain = 0
KCR1 122232Z 07007KT 32/11 A2986 RMK A01 T03210106  RH  027%=      5-min Rain = 0
KCR1 122233Z 06006KT 32/11 A2986 RMK A01 T03210107  RH  027%=      5-min Rain = 0
KCR1 122234Z 06005KT 32/11 A2986 RMK A01 T03210107  RH  027%=      5-min Rain = 0
KCR1 122235Z 04009KT 32/11 A2986 RMK A01 T03220107  RH  027%=      5-min Rain = 0
KCR1 122236Z 05008KT 32/11 A2986 RMK A01 T03220106  RH  027%=      5-min Rain = 0
KCR1 122237Z 07007KT 32/11 A2986 RMK A01 T03220107  RH  027%=      5-min Rain = 0
KCR1 122238Z 09008KT 32/11 A2986 RMK A01 T03220109  RH  027%=      5-min Rain = 0
KCR1 122239Z 07008KT 32/11 A2986 RMK A01 T03210109  RH  027%=      5-min Rain = 0
KCR1 122240Z 07007KT 32/11 A2986 RMK A01 T03200107  RH  027%=      5-min Rain = 0
KCR1 122241Z 07007KT 32/11 A2986 RMK A01 T03190108  RH  027%=      5-min Rain = 0
KCR1 122242Z 06008KT 32/11 A2986 RMK A01 T03180108  RH  027%=      5-min Rain = 0
KCR1 122243Z 07008KT 32/11 A2986 RMK A01 T03170106  RH  027%=      5-min Rain = 0
KCR1 122244Z 06007KT 32/11 A2986 RMK A01 T03150105  RH  028%=      5-min Rain = 0
KCR1 122245Z 06005KT 31/11 A2986 RMK A01 T03140107  RH  028%=      5-min Rain = 0
KCR1 122246Z 06006KT 31/11 A2986 RMK A01 T03140105  RH  028%=      5-min Rain = 0
KCR1 122247Z 07009KT 31/11 A2986 RMK A01 T03130105  RH  028%=      5-min Rain = 0
KCR1 122248Z 07007KT 31/10 A2986 RMK A01 T03130104  RH  028%=      5-min Rain = 0
KCR1 122249Z 07006KT 31/10 A2986 RMK A01 T03130104  RH  027%=      5-min Rain = 0
KCR1 122250Z 06007KT 31/11 A2986 RMK A01 T03140106  RH  028%=      5-min Rain = 0
KCR1 122251Z 05009KT 31/10 A2986 RMK A01 T03140103  RH  027%=      5-min Rain = 0
KCR1 122252Z 05009KT 32/10 A2986 RMK A01 T03150104  RH  027%=      5-min Rain = 0
KCR1 122253Z 05008KT 32/10 A2986 RMK A01 T03150103  RH  027%=      5-min Rain = 0
KCR1 122254Z 05005KT 32/10 A2986 RMK A01 T03150101  RH  027%=      5-min Rain = 0
KCR1 122255Z 06007KT 31/10 A2986 RMK A01 T03140104  RH  027%=      5-min Rain = 0
KCR1 122256Z 06008KT 31/11 A2986 RMK A01 T03140105  RH  028%=      5-min Rain = 0
KCR1 122257Z 06006KT 32/10 A2986 RMK A01 T03150104  RH  027%=      5-min Rain = 0
KCR1 122258Z 06007KT 32/10 A2986 RMK A01 T03150103  RH  027%=      5-min Rain = 0
KCR1 122259Z 06009KT 32/10 A2986 RMK A01 T03160104  RH  027%=      5-min Rain = 0
KCR1 122300Z 07008KT 32/10 A2986 RMK A01 T03180104  RH  027%=      5-min Rain = 0
KCR1 122301Z 07006KT 32/10 A2986 RMK A01 T03180102  RH  026%=      5-min Rain = 0
KCR1 122302Z 08005KT 32/10 A2986 RMK A01 T03170102  RH  027%=      5-min Rain = 0
KCR1 122303Z 06004KT 32/10 A2986 RMK A01 T03160103  RH  027%=      5-min Rain = 0
KCR1 122304Z 07007KT 32/10 A2986 RMK A01 T03160102  RH  027%=      5-min Rain = 0
KCR1 122305Z 07008KT 32/10 A2986 RMK A01 T03160103  RH  027%=      5-min Rain = 0
KCR1 122306Z 06008KT 32/10 A2986 RMK A01 T03160100  RH  026%=      5-min Rain = 0
KCR1 122307Z 06007KT 32/10 A2986 RMK A01 T03160100  RH  026%=      5-min Rain = 0
KCR1 122308Z 07007KT 32/10 A2986 RMK A01 T03170103  RH  027%=      5-min Rain = 0
KCR1 122309Z 07007KT 32/10 A2986 RMK A01 T03180100  RH  026%=      5-min Rain = 0
KCR1 122310Z 07005KT 32/10 A2986 RMK A01 T03180102  RH  026%=      5-min Rain = 0
KCR1 122311Z 08007KT 32/11 A2986 RMK A01 T03180106  RH  027%=      5-min Rain = 0
KCR1 122312Z 11008KT 32/10 A2986 RMK A01 T03190103  RH  027%=      5-min Rain = 0
KCR1 122313Z 10006KT 32/10 A2986 RMK A01 T03190104  RH  027%=      5-min Rain = 0
KCR1 122314Z 08006KT 32/10 A2986 RMK A01 T03190104  RH  027%=      5-min Rain = 0
KCR1 122315Z 08008KT 32/11 A2986 RMK A01 T03190105  RH  027%=      5-min Rain = 0
KCR1 122316Z 08009KT 32/10 A2986 RMK A01 T03200103  RH  026%=      5-min Rain = 0
KCR1 122317Z 08008KT 32/10 A2986 RMK A01 T03200103  RH  026%=      5-min Rain = 0
KCR1 122318Z 08008KT 32/10 A2986 RMK A01 T03200104  RH  027%=      5-min Rain = 0
KCR1 122319Z 09008KT 32/10 A2986 RMK A01 T03200104  RH  027%=      5-min Rain = 0
KCR1 122320Z 09007KT 32/10 A2986 RMK A01 T03190101  RH  026%=      5-min Rain = 0
KCR1 122321Z 09006KT 32/10 A2986 RMK A01 T03180100  RH  026%=      5-min Rain = 0
KCR1 122322Z 07007KT 32/10 A2986 RMK A01 T03180103  RH  027%=      5-min Rain = 0
KCR1 122323Z 06008KT 32/10 A2986 RMK A01 T03180101  RH  026%=      5-min Rain = 0
KCR1 122324Z 06008KT 32/10 A2986 RMK A01 T03180102  RH  026%=      5-min Rain = 0
KCR1 122325Z 06010KT 32/10 A2986 RMK A01 T03190101  RH  026%=      5-min Rain = 0
KCR1 122326Z 06010KT 32/10 A2986 RMK A01 T03190100  RH  026%=      5-min Rain = 0
KCR1 122327Z 05007KT 32/10 A2986 RMK A01 T03190098  RH  026%=      5-min Rain = 0
KCR1 122328Z 06005KT 32/10 A2986 RMK A01 T03180098  RH  026%=      5-min Rain = 0
KCR1 122329Z 07006KT 32/10 A2986 RMK A01 T03170100  RH  026%=      5-min Rain = 0
KCR1 122330Z 07007KT 32/10 A2986 RMK A01 T03170100  RH  026%=      5-min Rain = 0
KCR1 122331Z 08010KT 32/10 A2986 RMK A01 T03180100  RH  026%=      5-min Rain = 0
KCR1 122332Z 06009KT 32/10 A2986 RMK A01 T03180099  RH  026%=      5-min Rain = 0
KCR1 122333Z 07006KT 32/10 A2986 RMK A01 T03170101  RH  026%=      5-min Rain = 0
KCR1 122334Z 05007KT 32/10 A2986 RMK A01 T03180100  RH  026%=      5-min Rain = 0
KCR1 122335Z 06007KT 32/10 A2986 RMK A01 T03180103  RH  027%=      5-min Rain = 0
KCR1 122336Z 05008KT 32/10 A2986 RMK A01 T03200102  RH  026%=      5-min Rain = 0
KCR1 122337Z 04008KT 32/10 A2986 RMK A01 T03200102  RH  026%=      5-min Rain = 0
KCR1 122338Z 04008KT 32/10 A2986 RMK A01 T03200101  RH  026%=      5-min Rain = 0
KCR1 122339Z 06007KT 32/10 A2986 RMK A01 T03180100  RH  026%=      5-min Rain = 0
KCR1 122340Z 05006KT 32/10 A2986 RMK A01 T03170100  RH  026%=      5-min Rain = 0
KCR1 122341Z 05008KT 32/10 A2985 RMK A01 T03170101  RH  026%=      5-min Rain = 0
KCR1 122342Z 07005KT 32/10 A2985 RMK A01 T03170097  RH  026%=      5-min Rain = 0
KCR1 122343Z 07008KT 32/10 A2985 RMK A01 T03160100  RH  026%=      5-min Rain = 0
KCR1 122344Z 08008KT 32/10 A2985 RMK A01 T03170098  RH  026%=      5-min Rain = 0
KCR1 122345Z 08006KT 32/10 A2985 RMK A01 T03150098  RH  026%=      5-min Rain = 0
KCR1 122346Z 07006KT 32/10 A2985 RMK A01 T03150099  RH  026%=      5-min Rain = 0
KCR1 122347Z 08005KT 31/10 A2985 RMK A01 T03140101  RH  027%=      5-min Rain = 0
KCR1 122348Z 06006KT 31/10 A2985 RMK A01 T03140101  RH  027%=      5-min Rain = 0
KCR1 122349Z 05007KT 31/10 A2985 RMK A01 T03140097  RH  026%=      5-min Rain = 0
KCR1 122350Z 07011KT 32/10 A2985 RMK A01 T03150100  RH  027%=      5-min Rain = 0
KCR1 122351Z 07009KT 32/10 A2985 RMK A01 T03150103  RH  027%=      5-min Rain = 0
KCR1 122352Z 06010KT 31/11 A2985 RMK A01 T03140105  RH  028%=      5-min Rain = 0
KCR1 122353Z 06011KT 31/11 A2985 RMK A01 T03120106  RH  028%=      5-min Rain = 0
KCR1 122354Z 07009KT 31/11 A2985 RMK A01 T03110107  RH  029%=      5-min Rain = 0
KCR1 122355Z 07009KT 31/11 A2985 RMK A01 T03100109  RH  029%=      5-min Rain = 0
KCR1 122356Z 06012KT 31/11 A2985 RMK A01 T03090108  RH  029%=      5-min Rain = 0
KCR1 122357Z 07011KT 31/11 A2985 RMK A01 T03080107  RH  029%=      5-min Rain = 0
KCR1 122358Z 08012KT 31/11 A2985 RMK A01 T03070107  RH  029%=      5-min Rain = 0
KCR1 122359Z 07010KT 31/11 A2985 RMK A01 T03060107  RH  029%=      5-min Rain = 0
KCR1 130000Z 06012KT 31/11 A2985 RMK A01 T03060107  RH  029%=      5-min Rain = 0
KCR1 130001Z 07012KT 31/11 A2985 RMK A01 T03050106  RH  029%=      5-min Rain = 0
KCR1 130002Z 07012KT 31/11 A2985 RMK A01 T03050106  RH  029%=      5-min Rain = 0
KCR1 130003Z 07011KT 30/11 A2985 RMK A01 T03040105  RH  029%=      5-min Rain = 0
KCR1 130004Z 07012KT 30/10 A2985 RMK A01 T03040104  RH  029%=      5-min Rain = 0
KCR1 130005Z 07010KT 30/11 A2985 RMK A01 T03030105  RH  029%=      5-min Rain = 0
KCR1 130006Z 07010KT 30/11 A2985 RMK A01 T03030106  RH  030%=      5-min Rain = 0
KCR1 130007Z 07011KT 30/11 A2985 RMK A01 T03030105  RH  029%=      5-min Rain = 0
KCR1 130008Z 07010KT 30/10 A2985 RMK A01 T03020103  RH  029%=      5-min Rain = 0
KCR1 130009Z 07010KT 30/10 A2985 RMK A01 T03020103  RH  029%=      5-min Rain = 0
KCR1 130010Z 07009KT 30/10 A2985 RMK A01 T03020103  RH  029%=      5-min Rain = 0
KCR1 130011Z 08010KT 30/10 A2985 RMK A01 T03020104  RH  029%=      5-min Rain = 0
KCR1 130012Z 07011KT 30/10 A2985 RMK A01 T03010104  RH  029%=      5-min Rain = 0
KCR1 130013Z 07010KT 30/10 A2985 RMK A01 T03000102  RH  029%=      5-min Rain = 0
KCR1 130014Z 07012KT 30/10 A2985 RMK A01 T03000101  RH  029%=      5-min Rain = 0
KCR1 130015Z 07011KT 30/10 A2985 RMK A01 T02990101  RH  029%=      5-min Rain = 0
KCR1 130016Z 07010KT 30/10 A2985 RMK A01 T02990102  RH  029%=      5-min Rain = 0
KCR1 130017Z 07010KT 30/10 A2985 RMK A01 T02980101  RH  029%=      5-min Rain = 0
KCR1 130018Z 07009KT 30/10 A2985 RMK A01 T02980101  RH  029%=      5-min Rain = 0
KCR1 130019Z 07011KT 30/10 A2985 RMK A01 T02980102  RH  030%=      5-min Rain = 0
KCR1 130020Z 07011KT 30/10 A2985 RMK A01 T02970101  RH  030%=      5-min Rain = 0
KCR1 130021Z 07010KT 30/10 A2985 RMK A01 T02970101  RH  030%=      5-min Rain = 0
KCR1 130022Z 07009KT 30/10 A2985 RMK A01 T02960101  RH  030%=      5-min Rain = 0
KCR1 130023Z 07010KT 30/10 A2985 RMK A01 T02960102  RH  030%=      5-min Rain = 0
KCR1 130024Z 07010KT 30/10 A2985 RMK A01 T02950101  RH  030%=      5-min Rain = 0
KCR1 130025Z 07009KT 30/10 A2985 RMK A01 T02950101  RH  030%=      5-min Rain = 0
KCR1 130026Z 07009KT 29/10 A2985 RMK A01 T02940101  RH  030%=      5-min Rain = 0
KCR1 130027Z 07008KT 29/10 A2985 RMK A01 T02940102  RH  030%=      5-min Rain = 0
KCR1 130028Z 07009KT 29/10 A2985 RMK A01 T02940102  RH  030%=      5-min Rain = 0
KCR1 130029Z 07010KT 29/10 A2985 RMK A01 T02930102  RH  031%=      5-min Rain = 0
KCR1 130030Z 07008KT 29/10 A2985 RMK A01 T02930103  RH  031%=      5-min Rain = 0
KCR1 130031Z 07009KT 29/10 A2985 RMK A01 T02930104  RH  031%=      5-min Rain = 0
KCR1 130032Z 07008KT 29/10 A2985 RMK A01 T02920103  RH  031%=      5-min Rain = 0
KCR1 130033Z 07007KT 29/10 A2985 RMK A01 T02910104  RH  031%=      5-min Rain = 0
KCR1 130034Z 07010KT 29/10 A2985 RMK A01 T02910103  RH  031%=      5-min Rain = 0
KCR1 130035Z 07008KT 29/10 A2985 RMK A01 T02910103  RH  031%=      5-min Rain = 0
KCR1 130036Z 07007KT 29/10 A2985 RMK A01 T02900104  RH  031%=      5-min Rain = 0
KCR1 130037Z 07007KT 29/10 A2985 RMK A01 T02890104  RH  032%=      5-min Rain = 0
KCR1 130038Z 07008KT 29/10 A2985 RMK A01 T02890104  RH  032%=      5-min Rain = 0
KCR1 130039Z 07007KT 29/10 A2985 RMK A01 T02880104  RH  032%=      5-min Rain = 0
KCR1 130040Z 07007KT 29/10 A2985 RMK A01 T02880104  RH  032%=      5-min Rain = 0
KCR1 130041Z 08007KT 29/10 A2985 RMK A01 T02870104  RH  032%=      5-min Rain = 0
KCR1 130042Z 07007KT 29/10 A2985 RMK A01 T02870103  RH  032%=      5-min Rain = 0
KCR1 130043Z 07006KT 29/10 A2985 RMK A01 T02860103  RH  032%=      5-min Rain = 0
KCR1 130044Z 07006KT 29/10 A2985 RMK A01 T02860104  RH  032%=      5-min Rain = 0
KCR1 130045Z 07007KT 29/10 A2985 RMK A01 T02850104  RH  032%=      5-min Rain = 0
KCR1 130046Z 07006KT 28/10 A2985 RMK A01 T02840104  RH  032%=      5-min Rain = 0
KCR1 130047Z 07006KT 28/10 A2985 RMK A01 T02840104  RH  033%=      5-min Rain = 0
KCR1 130048Z 07006KT 28/10 A2985 RMK A01 T02830104  RH  033%=      5-min Rain = 0
KCR1 130049Z 07007KT 28/10 A2985 RMK A01 T02820104  RH  033%=      5-min Rain = 0
KCR1 130050Z 07006KT 28/10 A2985 RMK A01 T02820104  RH  033%=      5-min Rain = 0
KCR1 130051Z 07006KT 28/10 A2985 RMK A01 T02810104  RH  033%=      5-min Rain = 0
KCR1 130052Z 07006KT 28/10 A2984 RMK A01 T02810104  RH  033%=      5-min Rain = 0
KCR1 130053Z 07006KT 28/11 A2984 RMK A01 T02810105  RH  033%=      5-min Rain = 0
KCR1 130054Z 07006KT 28/11 A2984 RMK A01 T02790105  RH  034%=      5-min Rain = 0
KCR1 130055Z 07006KT 28/11 A2984 RMK A01 T02780105  RH  034%=      5-min Rain = 0
KCR1 130056Z 07006KT 28/11 A2984 RMK A01 T02770105  RH  034%=      5-min Rain = 0
KCR1 130057Z 07006KT 28/11 A2984 RMK A01 T02770105  RH  034%=      5-min Rain = 0
KCR1 130058Z 07005KT 28/11 A2984 RMK A01 T02760105  RH  034%=      5-min Rain = 0
KCR1 130059Z 07006KT 28/11 A2984 RMK A01 T02760105  RH  034%=      5-min Rain = 0
KCR1 130100Z 07006KT 28/11 A2984 RMK A01 T02750105  RH  034%=      5-min Rain = 0
KCR1 130101Z 07005KT 28/11 A2984 RMK A01 T02750105  RH  035%=      5-min Rain = 0
KCR1 130102Z 07006KT 28/11 A2984 RMK A01 T02750105  RH  035%=      5-min Rain = 0
KCR1 130103Z 07006KT 28/11 A2984 RMK A01 T02750105  RH  035%=      5-min Rain = 0
KCR1 130104Z 07006KT 27/11 A2984 RMK A01 T02740106  RH  035%=      5-min Rain = 0
KCR1 130105Z 07006KT 27/11 A2984 RMK A01 T02730105  RH  035%=      5-min Rain = 0
KCR1 130106Z 07005KT 27/11 A2984 RMK A01 T02720106  RH  035%=      5-min Rain = 0
KCR1 130107Z 07005KT 27/11 A2984 RMK A01 T02710106  RH  036%=      5-min Rain = 0
KCR1 130108Z 06006KT 27/11 A2984 RMK A01 T02700106  RH  036%=      5-min Rain = 0
KCR1 130109Z 06005KT 27/11 A2984 RMK A01 T02700106  RH  036%=      5-min Rain = 0
KCR1 130110Z 06005KT 27/11 A2984 RMK A01 T02690106  RH  036%=      5-min Rain = 0
KCR1 130111Z 06005KT 27/11 A2984 RMK A01 T02680106  RH  036%=      5-min Rain = 0
KCR1 130112Z 06005KT 27/11 A2985 RMK A01 T02670106  RH  036%=      5-min Rain = 0
KCR1 130113Z 06005KT 27/11 A2985 RMK A01 T02660106  RH  037%=      5-min Rain = 0
KCR1 130114Z 06005KT 27/11 A2985 RMK A01 T02660106  RH  037%=      5-min Rain = 0
KCR1 130115Z 07005KT 27/11 A2985 RMK A01 T02650106  RH  037%=      5-min Rain = 0
KCR1 130116Z 07005KT 27/11 A2985 RMK A01 T02650106  RH  037%=      5-min Rain = 0
KCR1 130117Z 07005KT 27/11 A2985 RMK A01 T02650107  RH  037%=      5-min Rain = 0
KCR1 130118Z 07005KT 26/11 A2985 RMK A01 T02640107  RH  037%=      5-min Rain = 0
KCR1 130119Z 07005KT 26/11 A2985 RMK A01 T02630106  RH  037%=      5-min Rain = 0
KCR1 130120Z 07005KT 26/11 A2985 RMK A01 T02630107  RH  038%=      5-min Rain = 0
KCR1 130121Z 07005KT 26/11 A2985 RMK A01 T02620106  RH  038%=      5-min Rain = 0
KCR1 130122Z 06005KT 26/11 A2985 RMK A01 T02620107  RH  038%=      5-min Rain = 0
KCR1 130123Z 07005KT 26/11 A2985 RMK A01 T02610107  RH  038%=      5-min Rain = 0
KCR1 130124Z 07005KT 26/11 A2985 RMK A01 T02610107  RH  038%=      5-min Rain = 0
KCR1 130125Z 07005KT 26/11 A2985 RMK A01 T02600107  RH  038%=      5-min Rain = 0
KCR1 130126Z 07005KT 26/11 A2985 RMK A01 T02600107  RH  038%=      5-min Rain = 0
KCR1 130127Z 07004KT 26/11 A2985 RMK A01 T02600107  RH  038%=      5-min Rain = 0
KCR1 130128Z 07004KT 26/11 A2985 RMK A01 T02590107  RH  038%=      5-min Rain = 0
KCR1 130129Z 07004KT 26/11 A2985 RMK A01 T02580107  RH  039%=      5-min Rain = 0
KCR1 130130Z 07005KT 26/11 A2985 RMK A01 T02580107  RH  039%=      5-min Rain = 0
KCR1 130131Z 07004KT 26/11 A2985 RMK A01 T02570107  RH  039%=      5-min Rain = 0
KCR1 130132Z 07004KT 26/11 A2985 RMK A01 T02570107  RH  039%=      5-min Rain = 0
KCR1 130133Z 07004KT 26/11 A2985 RMK A01 T02570107  RH  039%=      5-min Rain = 0
KCR1 130134Z 07004KT 26/11 A2985 RMK A01 T02560107  RH  039%=      5-min Rain = 0
KCR1 130135Z 07004KT 26/11 A2985 RMK A01 T02560107  RH  039%=      5-min Rain = 0
KCR1 130136Z 07003KT 26/11 A2985 RMK A01 T02560107  RH  039%=      5-min Rain = 0
KCR1 130137Z 08004KT 26/11 A2985 RMK A01 T02550107  RH  039%=      5-min Rain = 0
KCR1 130138Z 08004KT 26/11 A2985 RMK A01 T02550107  RH  039%=      5-min Rain = 0
KCR1 130139Z 09003KT 26/11 A2985 RMK A01 T02550108  RH  040%=      5-min Rain = 0
KCR1 130140Z 11002KT 25/11 A2985 RMK A01 T02530111  RH  041%=      5-min Rain = 0
KCR1 130141Z 13002KT 25/11 A2985 RMK A01 T02520110  RH  041%=      5-min Rain = 0
KCR1 130142Z 14002KT 25/11 A2985 RMK A01 T02510109  RH  041%=      5-min Rain = 0
KCR1 130143Z 14003KT 25/11 A2986 RMK A01 T02510107  RH  040%=      5-min Rain = 0
KCR1 130144Z 13004KT 25/11 A2986 RMK A01 T02520107  RH  040%=      5-min Rain = 0
KCR1 130145Z 12004KT 25/11 A2986 RMK A01 T02520107  RH  040%=      5-min Rain = 0
KCR1 130146Z 12003KT 25/11 A2986 RMK A01 T02530107  RH  040%=      5-min Rain = 0
KCR1 130147Z 11005KT 25/11 A2986 RMK A01 T02530110  RH  041%=      5-min Rain = 0
KCR1 130148Z 10003KT 25/11 A2986 RMK A01 T02530111  RH  041%=      5-min Rain = 0
KCR1 130149Z 09005KT 25/11 A2986 RMK A01 T02530110  RH  041%=      5-min Rain = 0
KCR1 130150Z 09005KT 25/11 A2986 RMK A01 T02520109  RH  041%=      5-min Rain = 0
KCR1 130151Z 09005KT 25/11 A2986 RMK A01 T02540108  RH  040%=      5-min Rain = 0
KCR1 130152Z 09006KT 26/11 A2986 RMK A01 T02570108  RH  039%=      5-min Rain = 0
KCR1 130153Z 09005KT 26/11 A2986 RMK A01 T02610108  RH  038%=      5-min Rain = 0
KCR1 130154Z 09005KT 26/11 A2986 RMK A01 T02620108  RH  038%=      5-min Rain = 0
KCR1 130155Z 09004KT 26/11 A2986 RMK A01 T02630109  RH  038%=      5-min Rain = 0
KCR1 130156Z 09005KT 26/11 A2986 RMK A01 T02620109  RH  038%=      5-min Rain = 0
KCR1 130157Z 09004KT 26/11 A2986 RMK A01 T02620109  RH  038%=      5-min Rain = 0
KCR1 130158Z 09004KT 26/11 A2986 RMK A01 T02620108  RH  038%=      5-min Rain = 0
KCR1 130159Z 09004KT 26/11 A2986 RMK A01 T02610108  RH  038%=      5-min Rain = 0
KCR1 130200Z 08004KT 26/11 A2986 RMK A01 T02610108  RH  038%=      5-min Rain = 0
KCR1 130201Z 09004KT 26/11 A2986 RMK A01 T02610107  RH  038%=      5-min Rain = 0
KCR1 130202Z 09004KT 26/11 A2986 RMK A01 T02610107  RH  038%=      5-min Rain = 0
KCR1 130203Z 08004KT 26/11 A2986 RMK A01 T02610108  RH  038%=      5-min Rain = 0
KCR1 130204Z 09004KT 26/11 A2986 RMK A01 T02610108  RH  038%=      5-min Rain = 0
KCR1 130205Z 09004KT 26/11 A2986 RMK A01 T02610108  RH  038%=      5-min Rain = 0
KCR1 130206Z 09004KT 26/11 A2986 RMK A01 T02600108  RH  038%=      5-min Rain = 0
KCR1 130207Z 09004KT 26/11 A2986 RMK A01 T02600108  RH  039%=      5-min Rain = 0
KCR1 130208Z 09005KT 26/11 A2986 RMK A01 T02590109  RH  039%=      5-min Rain = 0
KCR1 130209Z 09005KT 26/11 A2986 RMK A01 T02580109  RH  039%=      5-min Rain = 0
KCR1 130210Z 09005KT 26/11 A2986 RMK A01 T02570109  RH  040%=      5-min Rain = 0
KCR1 130211Z 09004KT 26/11 A2986 RMK A01 T02560110  RH  040%=      5-min Rain = 0
KCR1 130212Z 10004KT 26/11 A2986 RMK A01 T02560111  RH  040%=      5-min Rain = 0
KCR1 130213Z 10004KT 26/11 A2986 RMK A01 T02550111  RH  040%=      5-min Rain = 0
KCR1 130214Z 10004KT 25/11 A2986 RMK A01 T02540111  RH  041%=      5-min Rain = 0
KCR1 130215Z 10004KT 25/11 A2986 RMK A01 T02540111  RH  041%=      5-min Rain = 0
KCR1 130216Z 09004KT 25/11 A2986 RMK A01 T02540111  RH  041%=      5-min Rain = 0
KCR1 130217Z 10004KT 25/11 A2986 RMK A01 T02530110  RH  041%=      5-min Rain = 0
KCR1 130218Z 09004KT 25/11 A2986 RMK A01 T02530110  RH  041%=      5-min Rain = 0
KCR1 130219Z 09004KT 25/11 A2986 RMK A01 T02530110  RH  041%=      5-min Rain = 0
KCR1 130220Z 09004KT 25/11 A2986 RMK A01 T02530110  RH  041%=      5-min Rain = 0
KCR1 130221Z 09004KT 25/11 A2987 RMK A01 T02530109  RH  040%=      5-min Rain = 0
KCR1 130222Z 08005KT 25/11 A2987 RMK A01 T02530109  RH  040%=      5-min Rain = 0
KCR1 130223Z 08005KT 25/11 A2987 RMK A01 T02540109  RH  040%=      5-min Rain = 0
KCR1 130224Z 09009G14KT 25/11 A2987 RMK A01 T02540109  RH  040%=      5-min Rain = 0
KCR1 130225Z 09012KT 25/11 A2987 RMK A01 T02540109  RH  040%=      5-min Rain = 0
KCR1 130226Z 08009KT 26/11 A2987 RMK A01 T02550109  RH  040%=      5-min Rain = 0
KCR1 130227Z 07006KT 26/11 A2987 RMK A01 T02560109  RH  040%=      5-min Rain = 0
KCR1 130228Z 07007KT 25/11 A2987 RMK A01 T02540111  RH  041%=      5-min Rain = 0
KCR1 130229Z 07007KT 25/11 A2987 RMK A01 T02520111  RH  041%=      5-min Rain = 0
KCR1 130230Z 07006KT 25/11 A2987 RMK A01 T02510111  RH  041%=      5-min Rain = 0
KCR1 130231Z 08007KT 25/11 A2987 RMK A01 T02510111  RH  041%=      5-min Rain = 0
KCR1 130232Z 08007KT 25/11 A2987 RMK A01 T02510109  RH  041%=      5-min Rain = 0
KCR1 130233Z 08007KT 25/11 A2987 RMK A01 T02520110  RH  041%=      5-min Rain = 0
KCR1 130234Z 08008KT 25/11 A2987 RMK A01 T02530109  RH  041%=      5-min Rain = 0
KCR1 130235Z 09008KT 25/11 A2987 RMK A01 T02530109  RH  040%=      5-min Rain = 0
KCR1 130236Z 09008KT 25/11 A2987 RMK A01 T02530109  RH  040%=      5-min Rain = 0
KCR1 130237Z 10007KT 25/11 A2987 RMK A01 T02540108  RH  040%=      5-min Rain = 0
KCR1 130238Z 10008KT 25/11 A2987 RMK A01 T02540108  RH  040%=      5-min Rain = 0
KCR1 130239Z 10008KT 25/11 A2987 RMK A01 T02540108  RH  040%=      5-min Rain = 0
KCR1 130240Z 10007KT 26/11 A2987 RMK A01 T02550108  RH  040%=      5-min Rain = 0
KCR1 130241Z 10007KT 26/11 A2987 RMK A01 T02550108  RH  040%=      5-min Rain = 0
KCR1 130242Z 10007KT 25/11 A2987 RMK A01 T02540108  RH  040%=      5-min Rain = 0
KCR1 130243Z 11007KT 25/11 A2987 RMK A01 T02540108  RH  040%=      5-min Rain = 0
KCR1 130244Z 10007KT 25/11 A2987 RMK A01 T02540108  RH  040%=      5-min Rain = 0
KCR1 130245Z 11006KT 25/11 A2988 RMK A01 T02530108  RH  040%=      5-min Rain = 0
KCR1 130246Z 11006KT 25/11 A2988 RMK A01 T02530108  RH  040%=      5-min Rain = 0
KCR1 130247Z 11006KT 25/11 A2988 RMK A01 T02510108  RH  041%=      5-min Rain = 0
KCR1 130248Z 11005KT 25/11 A2988 RMK A01 T02510108  RH  041%=      5-min Rain = 0
KCR1 130249Z 11005KT 25/11 A2988 RMK A01 T02500108  RH  041%=      5-min Rain = 0
KCR1 130250Z 11006KT 25/11 A2988 RMK A01 T02490108  RH  041%=      5-min Rain = 0
KCR1 130251Z 10006KT 25/11 A2988 RMK A01 T02490108  RH  041%=      5-min Rain = 0
KCR1 130252Z 11005KT 25/11 A2988 RMK A01 T02480108  RH  041%=      5-min Rain = 0
KCR1 130253Z 11006KT 25/11 A2988 RMK A01 T02480108  RH  041%=      5-min Rain = 0
KCR1 130254Z 11005KT 25/11 A2988 RMK A01 T02480108  RH  041%=      5-min Rain = 0
KCR1 130255Z 10006KT 25/11 A2988 RMK A01 T02480108  RH  042%=      5-min Rain = 0
KCR1 130256Z 10006KT 25/11 A2988 RMK A01 T02480108  RH  041%=      5-min Rain = 0
KCR1 130257Z 10006KT 25/11 A2988 RMK A01 T02480108  RH  041%=      5-min Rain = 0
KCR1 130258Z 10006KT 25/11 A2988 RMK A01 T02470108  RH  042%=      5-min Rain = 0
KCR1 130259Z 10005KT 25/11 A2988 RMK A01 T02470108  RH  042%=      5-min Rain = 0
KCR1 130300Z 10006KT 25/11 A2988 RMK A01 T02460109  RH  042%=      5-min Rain = 0
KCR1 130301Z 11006KT 25/11 A2988 RMK A01 T02460108  RH  042%=      5-min Rain = 0
KCR1 130302Z 11005KT 25/11 A2988 RMK A01 T02460108  RH  042%=      5-min Rain = 0
KCR1 130303Z 10006KT 25/11 A2988 RMK A01 T02450108  RH  042%=      5-min Rain = 0
KCR1 130304Z 11006KT 25/11 A2988 RMK A01 T02450108  RH  042%=      5-min Rain = 0
KCR1 130305Z 10006KT 25/11 A2988 RMK A01 T02450108  RH  042%=      5-min Rain = 0
KCR1 130306Z 10006KT 25/11 A2988 RMK A01 T02450108  RH  042%=      5-min Rain = 0
KCR1 130307Z 10005KT 24/11 A2988 RMK A01 T02440109  RH  042%=      5-min Rain = 0
KCR1 130308Z 10005KT 24/11 A2988 RMK A01 T02430108  RH  043%=      5-min Rain = 0
KCR1 130309Z 10005KT 24/11 A2988 RMK A01 T02430108  RH  043%=      5-min Rain = 0
KCR1 130310Z 10005KT 24/11 A2988 RMK A01 T02420108  RH  043%=      5-min Rain = 0
KCR1 130311Z 10005KT 24/11 A2988 RMK A01 T02420108  RH  043%=      5-min Rain = 0
KCR1 130312Z 10005KT 24/11 A2988 RMK A01 T02410108  RH  043%=      5-min Rain = 0
KCR1 130313Z 10004KT 24/11 A2988 RMK A01 T02400108  RH  043%=      5-min Rain = 0
KCR1 130314Z 10004KT 24/11 A2988 RMK A01 T02400109  RH  044%=      5-min Rain = 0
KCR1 130315Z 10004KT 24/11 A2988 RMK A01 T02390108  RH  044%=      5-min Rain = 0
KCR1 130316Z 10004KT 24/11 A2988 RMK A01 T02380109  RH  044%=      5-min Rain = 0
KCR1 130317Z 10004KT 24/11 A2988 RMK A01 T02380109  RH  044%=      5-min Rain = 0
KCR1 130318Z 10004KT 24/11 A2988 RMK A01 T02370109  RH  045%=      5-min Rain = 0
KCR1 130319Z 11004KT 24/11 A2988 RMK A01 T02360108  RH  045%=      5-min Rain = 0
KCR1 130320Z 11004KT 24/11 A2988 RMK A01 T02350108  RH  045%=      5-min Rain = 0
KCR1 130321Z 11004KT 23/11 A2988 RMK A01 T02340108  RH  045%=      5-min Rain = 0
KCR1 130322Z 11004KT 23/11 A2988 RMK A01 T02340108  RH  045%=      5-min Rain = 0
KCR1 130323Z 11004KT 23/11 A2988 RMK A01 T02330108  RH  045%=      5-min Rain = 0
KCR1 130324Z 10005KT 23/11 A2988 RMK A01 T02330108  RH  045%=      5-min Rain = 0
KCR1 130325Z 10004KT 23/11 A2988 RMK A01 T02330108  RH  045%=      5-min Rain = 0
KCR1 130326Z 10005KT 23/11 A2988 RMK A01 T02320107  RH  045%=      5-min Rain = 0
KCR1 130327Z 10005KT 23/11 A2988 RMK A01 T02320108  RH  045%=      5-min Rain = 0
KCR1 130328Z 10005KT 23/11 A2988 RMK A01 T02320108  RH  046%=      5-min Rain = 0
KCR1 130329Z 10005KT 23/11 A2988 RMK A01 T02310108  RH  046%=      5-min Rain = 0
KCR1 130330Z 10005KT 23/11 A2988 RMK A01 T02310109  RH  046%=      5-min Rain = 0
KCR1 130331Z 10005KT 23/11 A2988 RMK A01 T02310109  RH  046%=      5-min Rain = 0
KCR1 130332Z 10005KT 23/11 A2988 RMK A01 T02300108  RH  046%=      5-min Rain = 0
KCR1 130333Z 10005KT 23/11 A2988 RMK A01 T02290108  RH  046%=      5-min Rain = 0
KCR1 130334Z 10005KT 23/11 A2988 RMK A01 T02290108  RH  046%=      5-min Rain = 0
KCR1 130335Z 10005KT 23/11 A2988 RMK A01 T02280108  RH  047%=      5-min Rain = 0
KCR1 130336Z 10005KT 23/11 A2988 RMK A01 T02280108  RH  047%=      5-min Rain = 0
KCR1 130337Z 10005KT 23/11 A2988 RMK A01 T02280108  RH  047%=      5-min Rain = 0
KCR1 130338Z 10005KT 23/11 A2988 RMK A01 T02270108  RH  047%=      5-min Rain = 0
KCR1 130339Z 10005KT 23/11 A2988 RMK A01 T02270108  RH  047%=      5-min Rain = 0
KCR1 130340Z 10004KT 23/11 A2988 RMK A01 T02270108  RH  047%=      5-min Rain = 0
KCR1 130341Z 10004KT 23/11 A2988 RMK A01 T02270108  RH  047%=      5-min Rain = 0
KCR1 130342Z 11004KT 23/11 A2988 RMK A01 T02270108  RH  047%=      5-min Rain = 0
KCR1 130343Z 11004KT 23/11 A2988 RMK A01 T02270109  RH  047%=      5-min Rain = 0
KCR1 130344Z 10004KT 23/11 A2988 RMK A01 T02270108  RH  047%=      5-min Rain = 0
KCR1 130345Z 11004KT 23/11 A2988 RMK A01 T02260108  RH  047%=      5-min Rain = 0
KCR1 130346Z 10004KT 23/11 A2988 RMK A01 T02260108  RH  047%=      5-min Rain = 0
KCR1 130347Z 10004KT 23/11 A2988 RMK A01 T02260108  RH  047%=      5-min Rain = 0
KCR1 130348Z 11004KT 23/11 A2988 RMK A01 T02260108  RH  047%=      5-min Rain = 0
KCR1 130349Z 11004KT 23/11 A2988 RMK A01 T02250108  RH  047%=      5-min Rain = 0
KCR1 130350Z 11004KT 23/11 A2988 RMK A01 T02250108  RH  047%=      5-min Rain = 0
KCR1 130351Z 11004KT 23/11 A2988 RMK A01 T02250108  RH  047%=      5-min Rain = 0
KCR1 130352Z 11004KT 23/11 A2988 RMK A01 T02250108  RH  047%=      5-min Rain = 0
KCR1 130353Z 11004KT 23/11 A2988 RMK A01 T02250108  RH  047%=      5-min Rain = 0
KCR1 130354Z 11004KT 23/11 A2988 RMK A01 T02250108  RH  047%=      5-min Rain = 0
KCR1 130355Z 11004KT 22/11 A2988 RMK A01 T02240108  RH  048%=      5-min Rain = 0
KCR1 130356Z 11004KT 22/11 A2988 RMK A01 T02240108  RH  048%=      5-min Rain = 0
KCR1 130357Z 11004KT 23/11 A2988 RMK A01 T02250108  RH  048%=      5-min Rain = 0
KCR1 130358Z 11004KT 22/11 A2988 RMK A01 T02240108  RH  048%=      5-min Rain = 0
KCR1 130359Z 11004KT 22/11 A2988 RMK A01 T02240108  RH  048%=      5-min Rain = 0
KCR1 130400Z 12004KT 22/11 A2988 RMK A01 T02240107  RH  048%=      5-min Rain = 0
KCR1 130401Z 12004KT 22/11 A2988 RMK A01 T02240108  RH  048%=      5-min Rain = 0
KCR1 130402Z 12004KT 22/11 A2988 RMK A01 T02240108  RH  048%=      5-min Rain = 0
KCR1 130403Z 12004KT 22/11 A2988 RMK A01 T02240108  RH  048%=      5-min Rain = 0
KCR1 130404Z 12004KT 22/11 A2988 RMK A01 T02230107  RH  048%=      5-min Rain = 0
KCR1 130405Z 12004KT 22/11 A2988 RMK A01 T02240107  RH  048%=      5-min Rain = 0
KCR1 130406Z 12004KT 22/11 A2988 RMK A01 T02240107  RH  048%=      5-min Rain = 0
KCR1 130407Z 12003KT 22/11 A2988 RMK A01 T02230107  RH  048%=      5-min Rain = 0
KCR1 130408Z 12004KT 22/11 A2988 RMK A01 T02230107  RH  048%=      5-min Rain = 0
KCR1 130409Z 12004KT 22/11 A2988 RMK A01 T02230107  RH  048%=      5-min Rain = 0
KCR1 130410Z 11003KT 22/11 A2988 RMK A01 T02240107  RH  048%=      5-min Rain = 0
KCR1 130411Z 11004KT 22/11 A2988 RMK A01 T02230107  RH  048%=      5-min Rain = 0
KCR1 130412Z 11004KT 22/11 A2988 RMK A01 T02240107  RH  048%=      5-min Rain = 0
KCR1 130413Z 12004KT 22/11 A2988 RMK A01 T02240107  RH  048%=      5-min Rain = 0
KCR1 130414Z 11004KT 22/11 A2988 RMK A01 T02240107  RH  047%=      5-min Rain = 0
KCR1 130415Z 11004KT 23/11 A2988 RMK A01 T02250107  RH  047%=      5-min Rain = 0
KCR1 130416Z 11004KT 23/11 A2988 RMK A01 T02260107  RH  047%=      5-min Rain = 0
KCR1 130417Z 11004KT 23/11 A2988 RMK A01 T02260107  RH  047%=      5-min Rain = 0
KCR1 130418Z 11004KT 23/11 A2988 RMK A01 T02270108  RH  047%=      5-min Rain = 0
KCR1 130419Z 11003KT 23/11 A2988 RMK A01 T02260108  RH  047%=      5-min Rain = 0
KCR1 130420Z 11003KT 23/11 A2988 RMK A01 T02260108  RH  047%=      5-min Rain = 0
KCR1 130421Z 11003KT 23/11 A2988 RMK A01 T02250107  RH  047%=      5-min Rain = 0
KCR1 130422Z 11003KT 23/11 A2988 RMK A01 T02250107  RH  047%=      5-min Rain = 0
KCR1 130423Z 11004KT 23/11 A2988 RMK A01 T02250107  RH  047%=      5-min Rain = 0
KCR1 130424Z 11004KT 23/11 A2988 RMK A01 T02250107  RH  047%=      5-min Rain = 0
KCR1 130425Z 11004KT 23/11 A2988 RMK A01 T02250107  RH  047%=      5-min Rain = 0
KCR1 130426Z 11004KT 23/11 A2988 RMK A01 T02250108  RH  048%=      5-min Rain = 0
KCR1 130427Z 11005KT 22/11 A2988 RMK A01 T02240108  RH  048%=      5-min Rain = 0
KCR1 130428Z 11005KT 22/11 A2988 RMK A01 T02240108  RH  048%=      5-min Rain = 0
KCR1 130429Z 11005KT 22/11 A2988 RMK A01 T02240108  RH  048%=      5-min Rain = 0
KCR1 130430Z 11005KT 22/11 A2988 RMK A01 T02230108  RH  048%=      5-min Rain = 0
KCR1 130431Z 11005KT 22/11 A2988 RMK A01 T02220109  RH  049%=      5-min Rain = 0
KCR1 130432Z 11005KT 22/11 A2988 RMK A01 T02210108  RH  049%=      5-min Rain = 0
KCR1 130433Z 11005KT 22/11 A2988 RMK A01 T02200109  RH  049%=      5-min Rain = 0
KCR1 130434Z 11006KT 22/11 A2988 RMK A01 T02190109  RH  050%=      5-min Rain = 0
KCR1 130435Z 11006KT 22/11 A2988 RMK A01 T02190109  RH  050%=      5-min Rain = 0
KCR1 130436Z 11005KT 22/11 A2988 RMK A01 T02180109  RH  050%=      5-min Rain = 0
KCR1 130437Z 11006KT 22/11 A2988 RMK A01 T02180109  RH  050%=      5-min Rain = 0
KCR1 130438Z 11006KT 22/11 A2988 RMK A01 T02180108  RH  050%=      5-min Rain = 0
KCR1 130439Z 11006KT 22/11 A2988 RMK A01 T02180108  RH  050%=      5-min Rain = 0
KCR1 130440Z 11006KT 22/11 A2988 RMK A01 T02190109  RH  050%=      5-min Rain = 0
KCR1 130441Z 11006KT 22/11 A2988 RMK A01 T02190109  RH  049%=      5-min Rain = 0
KCR1 130442Z 11006KT 22/11 A2988 RMK A01 T02190108  RH  049%=      5-min Rain = 0
KCR1 130443Z 11006KT 22/11 A2988 RMK A01 T02190108  RH  049%=      5-min Rain = 0
KCR1 130444Z 11007KT 22/11 A2988 RMK A01 T02190108  RH  049%=      5-min Rain = 0
KCR1 130445Z 11007KT 22/11 A2988 RMK A01 T02190109  RH  049%=      5-min Rain = 0
KCR1 130446Z 11007KT 22/11 A2988 RMK A01 T02190109  RH  049%=      5-min Rain = 0
KCR1 130447Z 11007KT 22/11 A2988 RMK A01 T02190109  RH  050%=      5-min Rain = 0
KCR1 130448Z 11007KT 22/11 A2988 RMK A01 T02190109  RH  050%=      5-min Rain = 0
KCR1 130449Z 11007KT 22/11 A2988 RMK A01 T02180109  RH  050%=      5-min Rain = 0
KCR1 130450Z 11007KT 22/11 A2988 RMK A01 T02190109  RH  050%=      5-min Rain = 0
KCR1 130451Z 11007KT 22/11 A2988 RMK A01 T02190108  RH  050%=      5-min Rain = 0
KCR1 130452Z 11007KT 22/11 A2988 RMK A01 T02180109  RH  050%=      5-min Rain = 0
KCR1 130453Z 11007KT 22/11 A2988 RMK A01 T02180109  RH  050%=      5-min Rain = 0
KCR1 130454Z 11007KT 22/11 A2988 RMK A01 T02180109  RH  050%=      5-min Rain = 0
KCR1 130455Z 11007KT 22/11 A2988 RMK A01 T02170109  RH  050%=      5-min Rain = 0
KCR1 130456Z 11007KT 22/11 A2988 RMK A01 T02170109  RH  050%=      5-min Rain = 0
KCR1 130457Z 11007KT 22/11 A2988 RMK A01 T02170108  RH  050%=      5-min Rain = 0
KCR1 130458Z 11007KT 22/11 A2988 RMK A01 T02170109  RH  050%=      5-min Rain = 0
KCR1 130459Z 11007KT 22/11 A2988 RMK A01 T02160108  RH  050%=      5-min Rain = 0

Page generated in 0.0728 seconds.